Wetterdaten: Montag, 07.11.2016
Datum Zeit Temp. A. Feuchte A. Luftdruck Regen Wind Richtung Richtung Sonnenschein ET UV Solar Taupunkt Windchill Windben Empfang
07.11.2016 00:00 2,2 C 98 % 1004,0 hPa 0,0 l/m 4,9 km/h (1 Bft) W-SW 256 0 min 0,000 mm 0,0 UV-I 0 W/m 1,9 C 2,2 C 8,0 km/h (2 Bft) 100,00 %
07.11.2016 00:02 2,2 C 98 % 1004,0 hPa 0,0 l/m 4,3 km/h (1 Bft) SW 230 0 min 0,000 mm 0,0 UV-I 0 W/m 1,9 C 2,2 C 6,4 km/h (2 Bft) 97,83 %
07.11.2016 00:04 2,2 C 98 % 1004,0 hPa 0,0 l/m 5,7 km/h (1 Bft) SW 228 0 min 0,000 mm 0,0 UV-I 0 W/m 1,9 C 2,2 C 11,3 km/h (2 Bft) 100,00 %
07.11.2016 00:06 2,2 C 98 % 1004,0 hPa 0,0 l/m 3,4 km/h (1 Bft) W-SW 248 0 min 0,000 mm 0,0 UV-I 0 W/m 1,9 C 2,2 C 4,8 km/h (1 Bft) 98,11 %
07.11.2016 00:08 2,2 C 98 % 1004,1 hPa 0,2 l/m 3,5 km/h (1 Bft) W-SW 242 0 min 0,000 mm 0,0 UV-I 0 W/m 1,9 C 2,2 C 6,4 km/h (2 Bft) 100,00 %
07.11.2016 00:10 2,2 C 98 % 1004,1 hPa 0,0 l/m 3,1 km/h (1 Bft) W-SW 242 0 min 0,000 mm 0,0 UV-I 0 W/m 1,9 C 2,2 C 4,8 km/h (1 Bft) 100,00 %
07.11.2016 00:12 2,2 C 98 % 1004,1 hPa 0,0 l/m 3,5 km/h (1 Bft) W-SW 242 0 min 0,000 mm 0,0 UV-I 0 W/m 1,9 C 2,2 C 4,8 km/h (1 Bft) 100,00 %
07.11.2016 00:14 2,2 C 98 % 1004,1 hPa 0,0 l/m 3,8 km/h (1 Bft) W-SW 242 0 min 0,000 mm 0,0 UV-I 0 W/m 1,9 C 2,2 C 6,4 km/h (2 Bft) 100,00 %
07.11.2016 00:16 2,2 C 98 % 1004,1 hPa 0,0 l/m 4,8 km/h (1 Bft) W-SW 239 0 min 0,000 mm 0,0 UV-I 0 W/m 1,9 C 2,2 C 6,4 km/h (2 Bft) 97,37 %
07.11.2016 00:18 2,2 C 98 % 1004,1 hPa 0,0 l/m 5,3 km/h (1 Bft) W-SW 239 0 min 0,000 mm 0,0 UV-I 0 W/m 1,9 C 2,2 C 8,0 km/h (2 Bft) 100,00 %
07.11.2016 00:20 2,2 C 98 % 1004,2 hPa 0,0 l/m 4,4 km/h (1 Bft) SW 236 0 min 0,000 mm 0,0 UV-I 0 W/m 1,9 C 2,2 C 6,4 km/h (2 Bft) 96,00 %
07.11.2016 00:22 2,3 C 98 % 1004,2 hPa 0,0 l/m 5,9 km/h (2 Bft) SW 235 0 min 0,000 mm 0,0 UV-I 0 W/m 2,0 C 2,3 C 8,0 km/h (2 Bft) 97,87 %
07.11.2016 00:24 2,3 C 98 % 1004,2 hPa 0,0 l/m 4,8 km/h (1 Bft) SW 235 0 min 0,000 mm 0,0 UV-I 0 W/m 2,0 C 2,3 C 6,4 km/h (2 Bft) 96,00 %
07.11.2016 00:26 2,3 C 98 % 1004,2 hPa 0,0 l/m 5,1 km/h (1 Bft) W-SW 249 0 min 0,000 mm 0,0 UV-I 0 W/m 2,0 C 2,3 C 6,4 km/h (2 Bft) 97,87 %
07.11.2016 00:28 2,3 C 98 % 1004,2 hPa 0,0 l/m 5,0 km/h (1 Bft) SW 234 0 min 0,000 mm 0,0 UV-I 0 W/m 2,0 C 2,3 C 8,0 km/h (2 Bft) 98,00 %
07.11.2016 00:30 2,3 C 98 % 1004,2 hPa 0,2 l/m 4,9 km/h (1 Bft) SW 231 0 min 0,000 mm 0,0 UV-I 0 W/m 2,0 C 2,3 C 8,0 km/h (2 Bft) 93,62 %
07.11.2016 00:32 2,3 C 98 % 1004,1 hPa 0,0 l/m 4,8 km/h (1 Bft) W 259 0 min 0,000 mm 0,0 UV-I 0 W/m 2,0 C 2,3 C 6,4 km/h (2 Bft) 97,37 %
07.11.2016 00:34 2,3 C 98 % 1004,2 hPa 0,0 l/m 3,8 km/h (1 Bft) SW 229 0 min 0,000 mm 0,0 UV-I 0 W/m 2,0 C 2,3 C 6,4 km/h (2 Bft) 96,23 %
07.11.2016 00:36 2,3 C 98 % 1004,2 hPa 0,0 l/m 6,0 km/h (2 Bft) SW 227 0 min 0,000 mm 0,0 UV-I 0 W/m 2,0 C 2,3 C 8,0 km/h (2 Bft) 97,56 %
07.11.2016 00:38 2,3 C 98 % 1004,2 hPa 0,0 l/m 4,8 km/h (1 Bft) S-SW 207 0 min 0,000 mm 0,0 UV-I 0 W/m 2,0 C 2,3 C 6,4 km/h (2 Bft) 98,00 %
07.11.2016 00:40 2,3 C 98 % 1004,2 hPa 0,0 l/m 5,0 km/h (1 Bft) W-SW 238 0 min 0,000 mm 0,0 UV-I 0 W/m 2,0 C 2,3 C 6,4 km/h (2 Bft) 95,24 %
07.11.2016 00:42 2,3 C 98 % 1004,2 hPa 0,0 l/m 4,3 km/h (1 Bft) SW 228 0 min 0,000 mm 0,0 UV-I 0 W/m 2,0 C 2,3 C 6,4 km/h (2 Bft) 96,00 %
07.11.2016 00:44 2,3 C 98 % 1004,2 hPa 0,0 l/m 4,5 km/h (1 Bft) SW 230 0 min 0,000 mm 0,0 UV-I 0 W/m 2,0 C 2,3 C 6,4 km/h (2 Bft) 95,74 %
07.11.2016 00:46 2,3 C 97 % 1004,2 hPa 0,0 l/m 4,7 km/h (1 Bft) SW 231 0 min 0,000 mm 0,0 UV-I 0 W/m 1,9 C 2,3 C 6,4 km/h (2 Bft) 96,00 %
07.11.2016 00:48 2,3 C 97 % 1004,2 hPa 0,0 l/m 4,8 km/h (1 Bft) SW 232 0 min 0,000 mm 0,0 UV-I 0 W/m 1,9 C 2,3 C 6,4 km/h (2 Bft) 98,00 %
07.11.2016 00:50 2,3 C 97 % 1004,3 hPa 0,0 l/m 4,9 km/h (1 Bft) SW 233 0 min 0,000 mm 0,0 UV-I 0 W/m 1,9 C 2,3 C 6,4 km/h (2 Bft) 97,44 %
07.11.2016 00:52 2,3 C 97 % 1004,2 hPa 0,0 l/m 4,4 km/h (1 Bft) SW 227 0 min 0,000 mm 0,0 UV-I 0 W/m 1,9 C 2,3 C 8,0 km/h (2 Bft) 93,62 %
07.11.2016 00:54 2,3 C 97 % 1004,2 hPa 0,0 l/m 3,9 km/h (1 Bft) SW 233 0 min 0,000 mm 0,0 UV-I 0 W/m 1,9 C 2,3 C 4,8 km/h (1 Bft) 98,00 %
07.11.2016 00:56 2,3 C 97 % 1004,2 hPa 0,0 l/m 4,0 km/h (1 Bft) W-SW 243 0 min 0,000 mm 0,0 UV-I 0 W/m 1,9 C 2,3 C 4,8 km/h (1 Bft) 97,56 %
07.11.2016 00:58 2,3 C 97 % 1004,2 hPa 0,0 l/m 4,5 km/h (1 Bft) W-SW 253 0 min 0,000 mm 0,0 UV-I 0 W/m 1,9 C 2,3 C 8,0 km/h (2 Bft) 100,00 %
07.11.2016 01:00 2,3 C 97 % 1004,1 hPa 0,0 l/m 5,6 km/h (1 Bft) W-SW 247 0 min 0,000 mm 0,0 UV-I 0 W/m 1,9 C 2,3 C 9,7 km/h (2 Bft) 100,00 %
07.11.2016 01:02 2,3 C 97 % 1004,1 hPa 0,2 l/m 4,3 km/h (1 Bft) W-SW 249 0 min 0,000 mm 0,0 UV-I 0 W/m 1,9 C 2,3 C 6,4 km/h (2 Bft) 100,00 %
07.11.2016 01:04 2,3 C 97 % 1004,1 hPa 0,0 l/m 5,7 km/h (1 Bft) W-NW 288 0 min 0,000 mm 0,0 UV-I 0 W/m 1,9 C 2,3 C 9,7 km/h (2 Bft) 100,00 %
07.11.2016 01:06 2,3 C 97 % 1004,1 hPa 0,0 l/m 6,0 km/h (2 Bft) W 271 0 min 0,000 mm 0,0 UV-I 0 W/m 1,9 C 2,3 C 9,7 km/h (2 Bft) 98,11 %
07.11.2016 01:08 2,3 C 97 % 1004,1 hPa 0,0 l/m 5,3 km/h (1 Bft) W-SW 246 0 min 0,000 mm 0,0 UV-I 0 W/m 1,9 C 2,3 C 8,0 km/h (2 Bft) 100,00 %
07.11.2016 01:10 2,3 C 97 % 1004,2 hPa 0,0 l/m 5,3 km/h (1 Bft) W-SW 248 0 min 0,000 mm 0,0 UV-I 0 W/m 1,9 C 2,3 C 8,0 km/h (2 Bft) 100,00 %
07.11.2016 01:12 2,3 C 97 % 1004,2 hPa 0,0 l/m 5,8 km/h (2 Bft) W-SW 257 0 min 0,000 mm 0,0 UV-I 0 W/m 1,9 C 2,3 C 8,0 km/h (2 Bft) 97,87 %
07.11.2016 01:14 2,3 C 97 % 1004,2 hPa 0,0 l/m 4,1 km/h (1 Bft) W-SW 242 0 min 0,000 mm 0,0 UV-I 0 W/m 1,9 C 2,3 C 6,4 km/h (2 Bft) 100,00 %
07.11.2016 01:16 2,3 C 97 % 1004,2 hPa 0,0 l/m 4,5 km/h (1 Bft) SW 227 0 min 0,000 mm 0,0 UV-I 0 W/m 1,9 C 2,3 C 6,4 km/h (2 Bft) 98,00 %
07.11.2016 01:18 2,3 C 97 % 1004,2 hPa 0,0 l/m 3,4 km/h (1 Bft) SW 227 0 min 0,000 mm 0,0 UV-I 0 W/m 1,9 C 2,3 C 6,4 km/h (2 Bft) 100,00 %
07.11.2016 01:20 2,3 C 97 % 1004,2 hPa 0,0 l/m 4,4 km/h (1 Bft) SW 227 0 min 0,000 mm 0,0 UV-I 0 W/m 1,9 C 2,3 C 6,4 km/h (2 Bft) 100,00 %
07.11.2016 01:22 2,3 C 97 % 1004,3 hPa 0,0 l/m 4,5 km/h (1 Bft) SW 228 0 min 0,000 mm 0,0 UV-I 0 W/m 1,9 C 2,3 C 6,4 km/h (2 Bft) 98,00 %
07.11.2016 01:24 2,3 C 97 % 1004,3 hPa 0,0 l/m 3,1 km/h (1 Bft) SW 228 0 min 0,000 mm 0,0 UV-I 0 W/m 1,9 C 2,3 C 6,4 km/h (2 Bft) 100,00 %
07.11.2016 01:26 2,3 C 97 % 1004,4 hPa 0,0 l/m 3,2 km/h (1 Bft) SW 228 0 min 0,000 mm 0,0 UV-I 0 W/m 1,9 C 2,3 C 4,8 km/h (1 Bft) 100,00 %
07.11.2016 01:28 2,3 C 97 % 1004,4 hPa 0,0 l/m 4,6 km/h (1 Bft) SW 228 0 min 0,000 mm 0,0 UV-I 0 W/m 1,9 C 2,3 C 6,4 km/h (2 Bft) 100,00 %
07.11.2016 01:30 2,3 C 97 % 1004,4 hPa 0,2 l/m 5,0 km/h (1 Bft) SW 236 0 min 0,000 mm 0,0 UV-I 0 W/m 1,9 C 2,3 C 6,4 km/h (2 Bft) 100,00 %
07.11.2016 01:32 2,3 C 97 % 1004,4 hPa 0,0 l/m 4,6 km/h (1 Bft) SW 234 0 min 0,000 mm 0,0 UV-I 0 W/m 1,9 C 2,3 C 6,4 km/h (2 Bft) 100,00 %
07.11.2016 01:34 2,3 C 97 % 1004,5 hPa 0,0 l/m 4,2 km/h (1 Bft) SW 223 0 min 0,000 mm 0,0 UV-I 0 W/m 1,9 C 2,3 C 8,0 km/h (2 Bft) 98,39 %
07.11.2016 01:36 2,3 C 97 % 1004,4 hPa 0,0 l/m 3,0 km/h (1 Bft) SW 223 0 min 0,000 mm 0,0 UV-I 0 W/m 1,9 C 2,3 C 4,8 km/h (1 Bft) 98,00 %
07.11.2016 01:38 2,3 C 97 % 1004,4 hPa 0,0 l/m 3,8 km/h (1 Bft) SW 233 0 min 0,000 mm 0,0 UV-I 0 W/m 1,9 C 2,3 C 6,4 km/h (2 Bft) 100,00 %
07.11.2016 01:40 2,4 C 97 % 1004,5 hPa 0,0 l/m 4,7 km/h (1 Bft) SW 234 0 min 0,000 mm 0,0 UV-I 0 W/m 2,0 C 2,4 C 8,0 km/h (2 Bft) 100,00 %
07.11.2016 01:42 2,4 C 97 % 1004,5 hPa 0,0 l/m 4,5 km/h (1 Bft) SW 229 0 min 0,000 mm 0,0 UV-I 0 W/m 2,0 C 2,4 C 8,0 km/h (2 Bft) 98,00 %
07.11.2016 01:44 2,4 C 97 % 1004,4 hPa 0,0 l/m 4,3 km/h (1 Bft) SW 227 0 min 0,000 mm 0,0 UV-I 0 W/m 2,0 C 2,4 C 6,4 km/h (2 Bft) 100,00 %
07.11.2016 01:46 2,4 C 97 % 1004,5 hPa 0,0 l/m 5,5 km/h (1 Bft) SW 219 0 min 0,000 mm 0,0 UV-I 0 W/m 2,0 C 2,4 C 8,0 km/h (2 Bft) 100,00 %
07.11.2016 01:48 2,4 C 97 % 1004,5 hPa 0,0 l/m 4,7 km/h (1 Bft) SW 230 0 min 0,000 mm 0,0 UV-I 0 W/m 2,0 C 2,4 C 8,0 km/h (2 Bft) 98,00 %
07.11.2016 01:50 2,4 C 97 % 1004,5 hPa 0,0 l/m 4,9 km/h (1 Bft) SW 227 0 min 0,000 mm 0,0 UV-I 0 W/m 2,0 C 2,4 C 6,4 km/h (2 Bft) 100,00 %
07.11.2016 01:52 2,4 C 97 % 1004,5 hPa 0,0 l/m 6,5 km/h (2 Bft) W-SW 244 0 min 0,000 mm 0,0 UV-I 0 W/m 2,0 C 2,3 C 11,3 km/h (2 Bft) 100,00 %
07.11.2016 01:54 2,4 C 97 % 1004,5 hPa 0,0 l/m 6,2 km/h (2 Bft) W-SW 239 0 min 0,000 mm 0,0 UV-I 0 W/m 2,0 C 2,4 C 9,7 km/h (2 Bft) 100,00 %
07.11.2016 01:56 2,4 C 97 % 1004,5 hPa 0,0 l/m 5,9 km/h (2 Bft) W-SW 244 0 min 0,000 mm 0,0 UV-I 0 W/m 2,0 C 2,4 C 11,3 km/h (2 Bft) 100,00 %
07.11.2016 01:58 2,4 C 97 % 1004,5 hPa 0,0 l/m 6,5 km/h (2 Bft) SW 219 0 min 0,000 mm 0,0 UV-I 0 W/m 2,0 C 2,3 C 9,7 km/h (2 Bft) 100,00 %
07.11.2016 02:00 2,4 C 97 % 1004,5 hPa 0,0 l/m 7,1 km/h (2 Bft) SW 224 0 min 0,000 mm 0,0 UV-I 0 W/m 2,0 C 1,7 C 9,7 km/h (2 Bft) 100,00 %
07.11.2016 02:02 2,3 C 97 % 1004,5 hPa 0,0 l/m 6,0 km/h (2 Bft) S-SW 202 0 min 0,000 mm 0,0 UV-I 0 W/m 1,9 C 2,3 C 9,7 km/h (2 Bft) 98,18 %
07.11.2016 02:04 2,4 C 97 % 1004,5 hPa 0,2 l/m 6,9 km/h (2 Bft) SW 226 0 min 0,000 mm 0,0 UV-I 0 W/m 2,0 C 1,9 C 9,7 km/h (2 Bft) 100,00 %
07.11.2016 02:06 2,3 C 97 % 1004,5 hPa 0,0 l/m 6,2 km/h (2 Bft) SW 236 0 min 0,000 mm 0,0 UV-I 0 W/m 1,9 C 2,3 C 8,0 km/h (2 Bft) 100,00 %
07.11.2016 02:08 2,3 C 97 % 1004,4 hPa 0,0 l/m 5,9 km/h (2 Bft) W-SW 238 0 min 0,000 mm 0,0 UV-I 0 W/m 1,9 C 2,3 C 8,0 km/h (2 Bft) 100,00 %
07.11.2016 02:10 2,3 C 97 % 1004,4 hPa 0,0 l/m 4,0 km/h (1 Bft) W-SW 239 0 min 0,000 mm 0,0 UV-I 0 W/m 1,9 C 2,3 C 6,4 km/h (2 Bft) 100,00 %
07.11.2016 02:12 2,3 C 97 % 1004,4 hPa 0,0 l/m 4,1 km/h (1 Bft) SW 234 0 min 0,000 mm 0,0 UV-I 0 W/m 1,9 C 2,3 C 6,4 km/h (2 Bft) 97,87 %
07.11.2016 02:14 2,3 C 97 % 1004,5 hPa 0,0 l/m 6,9 km/h (2 Bft) SW 220 0 min 0,000 mm 0,0 UV-I 0 W/m 1,9 C 1,8 C 11,3 km/h (2 Bft) 100,00 %
07.11.2016 02:16 2,3 C 97 % 1004,5 hPa 0,0 l/m 6,5 km/h (2 Bft) SW 222 0 min 0,000 mm 0,0 UV-I 0 W/m 1,9 C 2,2 C 9,7 km/h (2 Bft) 100,00 %
07.11.2016 02:18 2,3 C 97 % 1004,4 hPa 0,0 l/m 7,0 km/h (2 Bft) W-SW 242 0 min 0,000 mm 0,0 UV-I 0 W/m 1,9 C 1,7 C 11,3 km/h (2 Bft) 97,56 %
07.11.2016 02:20 2,3 C 97 % 1004,4 hPa 0,0 l/m 4,9 km/h (1 Bft) SW 217 0 min 0,000 mm 0,0 UV-I 0 W/m 1,9 C 2,3 C 8,0 km/h (2 Bft) 98,00 %
07.11.2016 02:22 2,3 C 97 % 1004,5 hPa 0,0 l/m 6,5 km/h (2 Bft) W-SW 238 0 min 0,000 mm 0,0 UV-I 0 W/m 1,9 C 2,2 C 9,7 km/h (2 Bft) 100,00 %
07.11.2016 02:24 2,3 C 97 % 1004,6 hPa 0,0 l/m 5,6 km/h (1 Bft) W-SW 240 0 min 0,000 mm 0,0 UV-I 0 W/m 1,9 C 2,3 C 8,0 km/h (2 Bft) 97,56 %
07.11.2016 02:26 2,3 C 97 % 1004,5 hPa 0,0 l/m 6,3 km/h (2 Bft) SW 232 0 min 0,000 mm 0,0 UV-I 0 W/m 1,9 C 2,3 C 9,7 km/h (2 Bft) 98,00 %
07.11.2016 02:28 2,3 C 97 % 1004,5 hPa 0,0 l/m 5,3 km/h (1 Bft) SW 229 0 min 0,000 mm 0,0 UV-I 0 W/m 1,9 C 2,3 C 8,0 km/h (2 Bft) 94,74 %
07.11.2016 02:30 2,2 C 97 % 1004,5 hPa 0,0 l/m 5,1 km/h (1 Bft) W-SW 244 0 min 0,000 mm 0,0 UV-I 0 W/m 1,8 C 2,2 C 8,0 km/h (2 Bft) 98,21 %
07.11.2016 02:32 2,2 C 97 % 1004,5 hPa 0,0 l/m 6,0 km/h (2 Bft) W-SW 239 0 min 0,000 mm 0,0 UV-I 0 W/m 1,8 C 2,2 C 9,7 km/h (2 Bft) 95,12 %
07.11.2016 02:34 2,3 C 97 % 1004,5 hPa 0,0 l/m 5,0 km/h (1 Bft) SW 218 0 min 0,000 mm 0,0 UV-I 0 W/m 1,9 C 2,3 C 8,0 km/h (2 Bft) 98,11 %
07.11.2016 02:36 2,2 C 97 % 1004,4 hPa 0,0 l/m 5,1 km/h (1 Bft) SW 228 0 min 0,000 mm 0,0 UV-I 0 W/m 1,8 C 2,2 C 8,0 km/h (2 Bft) 94,00 %
07.11.2016 02:38 2,2 C 97 % 1004,5 hPa 0,0 l/m 5,3 km/h (1 Bft) SW 229 0 min 0,000 mm 0,0 UV-I 0 W/m 1,8 C 2,2 C 8,0 km/h (2 Bft) 97,56 %
07.11.2016 02:40 2,2 C 97 % 1004,5 hPa 0,0 l/m 6,1 km/h (2 Bft) W-SW 242 0 min 0,000 mm 0,0 UV-I 0 W/m 1,8 C 2,2 C 9,7 km/h (2 Bft) 98,00 %
07.11.2016 02:42 2,2 C 97 % 1004,5 hPa 0,0 l/m 6,7 km/h (2 Bft) SW 230 0 min 0,000 mm 0,0 UV-I 0 W/m 1,8 C 1,9 C 8,0 km/h (2 Bft) 95,24 %
07.11.2016 02:44 2,2 C 97 % 1004,5 hPa 0,0 l/m 4,3 km/h (1 Bft) SW 230 0 min 0,000 mm 0,0 UV-I 0 W/m 1,8 C 2,2 C 6,4 km/h (2 Bft) 97,73 %
07.11.2016 02:46 2,2 C 97 % 1004,5 hPa 0,0 l/m 6,2 km/h (2 Bft) SW 215 0 min 0,000 mm 0,0 UV-I 0 W/m 1,8 C 2,2 C 8,0 km/h (2 Bft) 95,74 %
07.11.2016 02:48 2,2 C 97 % 1004,6 hPa 0,0 l/m 5,8 km/h (2 Bft) W-SW 249 0 min 0,000 mm 0,0 UV-I 0 W/m 1,8 C 2,2 C 8,0 km/h (2 Bft) 98,00 %
07.11.2016 02:50 2,2 C 97 % 1004,6 hPa 0,0 l/m 6,7 km/h (2 Bft) W-SW 242 0 min 0,000 mm 0,0 UV-I 0 W/m 1,8 C 1,9 C 11,3 km/h (2 Bft) 97,87 %
07.11.2016 02:52 2,2 C 97 % 1004,6 hPa 0,2 l/m 5,4 km/h (1 Bft) W 259 0 min 0,000 mm 0,0 UV-I 0 W/m 1,8 C 2,2 C 9,7 km/h (2 Bft) 96,23 %
07.11.2016 02:54 2,2 C 97 % 1004,6 hPa 0,0 l/m 5,3 km/h (1 Bft) W-SW 252 0 min 0,000 mm 0,0 UV-I 0 W/m 1,8 C 2,2 C 6,4 km/h (2 Bft) 95,74 %
07.11.2016 02:56 2,2 C 97 % 1004,6 hPa 0,0 l/m 5,1 km/h (1 Bft) W-SW 246 0 min 0,000 mm 0,0 UV-I 0 W/m 1,8 C 2,2 C 6,4 km/h (2 Bft) 97,37 %
07.11.2016 02:58 2,2 C 97 % 1004,6 hPa 0,0 l/m 6,3 km/h (2 Bft) W 265 0 min 0,000 mm 0,0 UV-I 0 W/m 1,8 C 2,2 C 9,7 km/h (2 Bft) 98,11 %
07.11.2016 03:00 2,2 C 97 % 1004,6 hPa 0,0 l/m 6,5 km/h (2 Bft) W-SW 258 0 min 0,000 mm 0,0 UV-I 0 W/m 1,8 C 2,1 C 9,7 km/h (2 Bft) 97,87 %
07.11.2016 03:02 2,2 C 97 % 1004,6 hPa 0,0 l/m 5,6 km/h (1 Bft) W-SW 238 0 min 0,000 mm 0,0 UV-I 0 W/m 1,8 C 2,2 C 9,7 km/h (2 Bft) 92,11 %
07.11.2016 03:04 2,2 C 97 % 1004,6 hPa 0,0 l/m 4,2 km/h (1 Bft) SW 236 0 min 0,000 mm 0,0 UV-I 0 W/m 1,8 C 2,2 C 6,4 km/h (2 Bft) 100,00 %
07.11.2016 03:06 2,2 C 97 % 1004,6 hPa 0,0 l/m 5,9 km/h (2 Bft) S-SW 213 0 min 0,000 mm 0,0 UV-I 0 W/m 1,8 C 2,2 C 8,0 km/h (2 Bft) 100,00 %
07.11.2016 03:08 2,3 C 97 % 1004,6 hPa 0,0 l/m 5,6 km/h (1 Bft) SW 222 0 min 0,000 mm 0,0 UV-I 0 W/m 1,9 C 2,3 C 8,0 km/h (2 Bft) 100,00 %
07.11.2016 03:10 2,3 C 97 % 1004,6 hPa 0,0 l/m 7,7 km/h (2 Bft) SW 230 0 min 0,000 mm 0,0 UV-I 0 W/m 1,9 C 1,0 C 11,3 km/h (2 Bft) 98,21 %
07.11.2016 03:12 2,3 C 97 % 1004,6 hPa 0,0 l/m 6,0 km/h (2 Bft) W-SW 246 0 min 0,000 mm 0,0 UV-I 0 W/m 1,9 C 2,3 C 9,7 km/h (2 Bft) 98,00 %
07.11.2016 03:14 2,3 C 97 % 1004,6 hPa 0,0 l/m 6,7 km/h (2 Bft) W-SW 246 0 min 0,000 mm 0,0 UV-I 0 W/m 1,9 C 2,0 C 9,7 km/h (2 Bft) 97,37 %
07.11.2016 03:16 2,3 C 97 % 1004,6 hPa 0,0 l/m 7,5 km/h (2 Bft) SW 220 0 min 0,000 mm 0,0 UV-I 0 W/m 1,9 C 1,2 C 11,3 km/h (2 Bft) 98,11 %
07.11.2016 03:18 2,3 C 97 % 1004,6 hPa 0,0 l/m 5,8 km/h (2 Bft) SW 232 0 min 0,000 mm 0,0 UV-I 0 W/m 1,9 C 2,3 C 8,0 km/h (2 Bft) 100,00 %
07.11.2016 03:20 2,3 C 97 % 1004,5 hPa 0,0 l/m 6,4 km/h (2 Bft) SW 232 0 min 0,000 mm 0,0 UV-I 0 W/m 1,9 C 2,3 C 9,7 km/h (2 Bft) 97,62 %
07.11.2016 03:22 2,3 C 97 % 1004,5 hPa 0,0 l/m 5,3 km/h (1 Bft) SW 217 0 min 0,000 mm 0,0 UV-I 0 W/m 1,9 C 2,3 C 9,7 km/h (2 Bft) 100,00 %
07.11.2016 03:24 2,3 C 97 % 1004,5 hPa 0,0 l/m 4,9 km/h (1 Bft) SW 233 0 min 0,000 mm 0,0 UV-I 0 W/m 1,9 C 2,3 C 6,4 km/h (2 Bft) 100,00 %
07.11.2016 03:26 2,3 C 97 % 1004,6 hPa 0,0 l/m 4,9 km/h (1 Bft) W-SW 241 0 min 0,000 mm 0,0 UV-I 0 W/m 1,9 C 2,3 C 8,0 km/h (2 Bft) 100,00 %
07.11.2016 03:28 2,3 C 97 % 1004,6 hPa 0,0 l/m 4,9 km/h (1 Bft) SW 219 0 min 0,000 mm 0,0 UV-I 0 W/m 1,9 C 2,3 C 6,4 km/h (2 Bft) 97,87 %
07.11.2016 03:30 2,3 C 97 % 1004,6 hPa 0,0 l/m 5,4 km/h (1 Bft) W-SW 238 0 min 0,000 mm 0,0 UV-I 0 W/m 1,9 C 2,3 C 8,0 km/h (2 Bft) 100,00 %
07.11.2016 03:32 2,3 C 97 % 1004,6 hPa 0,0 l/m 4,5 km/h (1 Bft) SW 228 0 min 0,000 mm 0,0 UV-I 0 W/m 1,9 C 2,3 C 6,4 km/h (2 Bft) 98,00 %
07.11.2016 03:34 2,3 C 97 % 1004,6 hPa 0,0 l/m 5,3 km/h (1 Bft) SW 228 0 min 0,000 mm 0,0 UV-I 0 W/m 1,9 C 2,3 C 9,7 km/h (2 Bft) 100,00 %
07.11.2016 03:36 2,3 C 97 % 1004,6 hPa 0,0 l/m 6,0 km/h (2 Bft) SW 221 0 min 0,000 mm 0,0 UV-I 0 W/m 1,9 C 2,3 C 9,7 km/h (2 Bft) 100,00 %
07.11.2016 03:38 2,3 C 97 % 1004,7 hPa 0,0 l/m 5,3 km/h (1 Bft) SW 220 0 min 0,000 mm 0,0 UV-I 0 W/m 1,9 C 2,3 C 6,4 km/h (2 Bft) 100,00 %
07.11.2016 03:40 2,3 C 97 % 1004,7 hPa 0,0 l/m 6,9 km/h (2 Bft) SW 219 0 min 0,000 mm 0,0 UV-I 0 W/m 1,9 C 1,8 C 9,7 km/h (2 Bft) 100,00 %
07.11.2016 03:42 2,3 C 97 % 1004,7 hPa 0,0 l/m 7,2 km/h (2 Bft) W-SW 246 0 min 0,000 mm 0,0 UV-I 0 W/m 1,9 C 1,5 C 9,7 km/h (2 Bft) 100,00 %
07.11.2016 03:44 2,3 C 97 % 1004,7 hPa 0,0 l/m 7,1 km/h (2 Bft) W-SW 238 0 min 0,000 mm 0,0 UV-I 0 W/m 1,9 C 1,6 C 11,3 km/h (2 Bft) 100,00 %
07.11.2016 03:46 2,3 C 97 % 1004,7 hPa 0,0 l/m 7,2 km/h (2 Bft) SW 234 0 min 0,000 mm 0,0 UV-I 0 W/m 1,9 C 1,5 C 11,3 km/h (2 Bft) 97,14 %
07.11.2016 03:48 2,3 C 97 % 1004,8 hPa 0,0 l/m 5,6 km/h (1 Bft) SW 222 0 min 0,000 mm 0,0 UV-I 0 W/m 1,9 C 2,3 C 9,7 km/h (2 Bft) 100,00 %
07.11.2016 03:50 2,3 C 97 % 1004,8 hPa 0,0 l/m 7,6 km/h (2 Bft) W-SW 240 0 min 0,000 mm 0,0 UV-I 0 W/m 1,9 C 1,1 C 11,3 km/h (2 Bft) 100,00 %
07.11.2016 03:52 2,3 C 97 % 1004,8 hPa 0,0 l/m 6,2 km/h (2 Bft) W-SW 238 0 min 0,000 mm 0,0 UV-I 0 W/m 1,9 C 2,3 C 9,7 km/h (2 Bft) 100,00 %
07.11.2016 03:54 2,3 C 97 % 1004,8 hPa 0,0 l/m 6,5 km/h (2 Bft) SW 235 0 min 0,000 mm 0,0 UV-I 0 W/m 1,9 C 2,2 C 9,7 km/h (2 Bft) 98,11 %
07.11.2016 03:56 2,3 C 97 % 1004,8 hPa 0,0 l/m 6,1 km/h (2 Bft) W-SW 254 0 min 0,000 mm 0,0 UV-I 0 W/m 1,9 C 2,3 C 8,0 km/h (2 Bft) 100,00 %
07.11.2016 03:58 2,3 C 97 % 1004,8 hPa 0,0 l/m 5,6 km/h (1 Bft) W 265 0 min 0,000 mm 0,0 UV-I 0 W/m 1,9 C 2,3 C 9,7 km/h (2 Bft) 100,00 %
07.11.2016 04:00 2,3 C 97 % 1004,7 hPa 0,0 l/m 6,7 km/h (2 Bft) W-SW 247 0 min 0,000 mm 0,0 UV-I 0 W/m 1,9 C 2,0 C 11,3 km/h (2 Bft) 100,00 %
07.11.2016 04:02 2,3 C 97 % 1004,8 hPa 0,0 l/m 7,4 km/h (2 Bft) SW 228 0 min 0,000 mm 0,0 UV-I 0 W/m 1,9 C 1,3 C 11,3 km/h (2 Bft) 100,00 %
07.11.2016 04:04 2,3 C 97 % 1004,8 hPa 0,0 l/m 6,0 km/h (2 Bft) SW 217 0 min 0,000 mm 0,0 UV-I 0 W/m 1,9 C 2,3 C 8,0 km/h (2 Bft) 100,00 %
07.11.2016 04:06 2,3 C 97 % 1004,8 hPa 0,0 l/m 6,4 km/h (2 Bft) SW 232 0 min 0,000 mm 0,0 UV-I 0 W/m 1,9 C 2,3 C 9,7 km/h (2 Bft) 98,21 %
07.11.2016 04:08 2,3 C 97 % 1004,9 hPa 0,0 l/m 7,7 km/h (2 Bft) SW 236 0 min 0,000 mm 0,0 UV-I 0 W/m 1,9 C 1,0 C 12,9 km/h (3 Bft) 97,87 %
07.11.2016 04:10 2,3 C 97 % 1004,9 hPa 0,0 l/m 7,0 km/h (2 Bft) SW 227 0 min 0,000 mm 0,0 UV-I 0 W/m 1,9 C 1,7 C 11,3 km/h (2 Bft) 100,00 %
07.11.2016 04:12 2,3 C 97 % 1004,8 hPa 0,0 l/m 9,2 km/h (2 Bft) S-SW 208 0 min 0,000 mm 0,0 UV-I 0 W/m 1,9 C -0,3 C 12,9 km/h (3 Bft) 100,00 %
07.11.2016 04:14 2,3 C 97 % 1004,8 hPa 0,0 l/m 7,3 km/h (2 Bft) SW 221 0 min 0,000 mm 0,0 UV-I 0 W/m 1,9 C 1,4 C 11,3 km/h (2 Bft) 100,00 %
07.11.2016 04:16 2,3 C 97 % 1004,9 hPa 0,0 l/m 8,0 km/h (2 Bft) SW 225 0 min 0,000 mm 0,0 UV-I 0 W/m 1,9 C 0,8 C 12,9 km/h (3 Bft) 95,45 %
07.11.2016 04:18 2,3 C 97 % 1004,9 hPa 0,0 l/m 7,0 km/h (2 Bft) SW 217 0 min 0,000 mm 0,0 UV-I 0 W/m 1,9 C 1,7 C 11,3 km/h (2 Bft) 98,11 %
07.11.2016 04:20 2,3 C 97 % 1004,9 hPa 0,2 l/m 6,8 km/h (2 Bft) SW 232 0 min 0,000 mm 0,0 UV-I 0 W/m 1,9 C 1,9 C 11,3 km/h (2 Bft) 100,00 %
07.11.2016 04:22 2,3 C 97 % 1004,8 hPa 0,0 l/m 5,7 km/h (1 Bft) W-SW 237 0 min 0,000 mm 0,0 UV-I 0 W/m 1,9 C 2,3 C 8,0 km/h (2 Bft) 97,73 %
07.11.2016 04:24 2,3 C 97 % 1004,9 hPa 0,0 l/m 4,3 km/h (1 Bft) SW 219 0 min 0,000 mm 0,0 UV-I 0 W/m 1,9 C 2,3 C 8,0 km/h (2 Bft) 100,00 %
07.11.2016 04:26 2,3 C 97 % 1004,9 hPa 0,0 l/m 6,6 km/h (2 Bft) W-SW 243 0 min 0,000 mm 0,0 UV-I 0 W/m 1,9 C 2,1 C 11,3 km/h (2 Bft) 100,00 %
07.11.2016 04:28 2,3 C 97 % 1004,8 hPa 0,0 l/m 6,2 km/h (2 Bft) W-SW 238 0 min 0,000 mm 0,0 UV-I 0 W/m 1,9 C 2,3 C 8,0 km/h (2 Bft) 97,73 %
07.11.2016 04:30 2,3 C 97 % 1004,8 hPa 0,0 l/m 5,7 km/h (1 Bft) W-SW 241 0 min 0,000 mm 0,0 UV-I 0 W/m 1,9 C 2,3 C 8,0 km/h (2 Bft) 92,31 %
07.11.2016 04:32 2,3 C 97 % 1004,9 hPa 0,0 l/m 8,3 km/h (2 Bft) W-SW 250 0 min 0,000 mm 0,0 UV-I 0 W/m 1,9 C 0,5 C 12,9 km/h (3 Bft) 96,43 %
07.11.2016 04:34 2,3 C 97 % 1004,9 hPa 0,0 l/m 7,4 km/h (2 Bft) SW 217 0 min 0,000 mm 0,0 UV-I 0 W/m 1,9 C 1,3 C 11,3 km/h (2 Bft) 97,62 %
07.11.2016 04:36 2,3 C 97 % 1004,9 hPa 0,0 l/m 6,9 km/h (2 Bft) SW 225 0 min 0,000 mm 0,0 UV-I 0 W/m 1,9 C 1,8 C 11,3 km/h (2 Bft) 96,55 %
07.11.2016 04:38 2,3 C 97 % 1005,0 hPa 0,0 l/m 5,8 km/h (2 Bft) SW 236 0 min 0,000 mm 0,0 UV-I 0 W/m 1,9 C 2,3 C 9,7 km/h (2 Bft) 97,87 %
07.11.2016 04:40 2,3 C 97 % 1005,0 hPa 0,0 l/m 5,4 km/h (1 Bft) SW 232 0 min 0,000 mm 0,0 UV-I 0 W/m 1,9 C 2,3 C 12,9 km/h (3 Bft) 97,22 %
07.11.2016 04:42 2,3 C 97 % 1004,9 hPa 0,0 l/m 4,6 km/h (1 Bft) SW 215 0 min 0,000 mm 0,0 UV-I 0 W/m 1,9 C 2,3 C 8,0 km/h (2 Bft) 98,21 %
07.11.2016 04:44 2,3 C 97 % 1004,9 hPa 0,0 l/m 6,3 km/h (2 Bft) S-SW 205 0 min 0,000 mm 0,0 UV-I 0 W/m 1,9 C 2,3 C 9,7 km/h (2 Bft) 95,35 %
07.11.2016 04:46 2,3 C 97 % 1005,0 hPa 0,0 l/m 6,5 km/h (2 Bft) S-SW 213 0 min 0,000 mm 0,0 UV-I 0 W/m 1,9 C 2,2 C 9,7 km/h (2 Bft) 98,11 %
07.11.2016 04:48 2,3 C 97 % 1004,9 hPa 0,0 l/m 8,0 km/h (2 Bft) W-SW 242 0 min 0,000 mm 0,0 UV-I 0 W/m 1,9 C 0,8 C 11,3 km/h (2 Bft) 97,56 %
07.11.2016 04:50 2,3 C 97 % 1005,0 hPa 0,0 l/m 8,1 km/h (2 Bft) SW 227 0 min 0,000 mm 0,0 UV-I 0 W/m 1,9 C 0,7 C 12,9 km/h (3 Bft) 97,87 %
07.11.2016 04:52 2,3 C 97 % 1005,0 hPa 0,0 l/m 7,1 km/h (2 Bft) W-SW 244 0 min 0,000 mm 0,0 UV-I 0 W/m 1,9 C 1,6 C 14,5 km/h (3 Bft) 97,56 %
07.11.2016 04:54 2,3 C 97 % 1005,0 hPa 0,0 l/m 9,1 km/h (2 Bft) SW 226 0 min 0,000 mm 0,0 UV-I 0 W/m 1,9 C -0,2 C 17,7 km/h (3 Bft) 97,30 %
07.11.2016 04:56 2,3 C 97 % 1005,0 hPa 0,0 l/m 7,5 km/h (2 Bft) S 185 0 min 0,000 mm 0,0 UV-I 0 W/m 1,9 C 1,2 C 12,9 km/h (3 Bft) 97,06 %
07.11.2016 04:58 2,3 C 97 % 1005,0 hPa 0,0 l/m 7,4 km/h (2 Bft) W-SW 238 0 min 0,000 mm 0,0 UV-I 0 W/m 1,9 C 1,3 C 9,7 km/h (2 Bft) 95,45 %
07.11.2016 05:00 2,3 C 97 % 1005,0 hPa 0,0 l/m 6,9 km/h (2 Bft) SW 233 0 min 0,000 mm 0,0 UV-I 0 W/m 1,9 C 1,8 C 11,3 km/h (2 Bft) 97,87 %
07.11.2016 05:02 2,3 C 97 % 1005,0 hPa 0,0 l/m 6,4 km/h (2 Bft) S-SW 212 0 min 0,000 mm 0,0 UV-I 0 W/m 1,9 C 2,3 C 12,9 km/h (3 Bft) 97,37 %
07.11.2016 05:04 2,3 C 97 % 1005,1 hPa 0,0 l/m 6,0 km/h (2 Bft) SW 227 0 min 0,000 mm 0,0 UV-I 0 W/m 1,9 C 2,3 C 9,7 km/h (2 Bft) 97,73 %
07.11.2016 05:06 2,3 C 97 % 1005,1 hPa 0,0 l/m 6,2 km/h (2 Bft) S-SW 207 0 min 0,000 mm 0,0 UV-I 0 W/m 1,9 C 2,3 C 9,7 km/h (2 Bft) 100,00 %
07.11.2016 05:08 2,3 C 97 % 1005,1 hPa 0,0 l/m 6,1 km/h (2 Bft) SW 222 0 min 0,000 mm 0,0 UV-I 0 W/m 1,9 C 2,3 C 8,0 km/h (2 Bft) 97,87 %
07.11.2016 05:10 2,3 C 97 % 1005,2 hPa 0,0 l/m 6,7 km/h (2 Bft) SW 225 0 min 0,000 mm 0,0 UV-I 0 W/m 1,9 C 2,0 C 9,7 km/h (2 Bft) 97,73 %
07.11.2016 05:12 2,3 C 97 % 1005,1 hPa 0,0 l/m 7,0 km/h (2 Bft) W-SW 242 0 min 0,000 mm 0,0 UV-I 0 W/m 1,9 C 1,7 C 9,7 km/h (2 Bft) 100,00 %
07.11.2016 05:14 2,3 C 97 % 1005,1 hPa 0,0 l/m 7,8 km/h (2 Bft) S-SW 207 0 min 0,000 mm 0,0 UV-I 0 W/m 1,9 C 1,0 C 11,3 km/h (2 Bft) 98,00 %
07.11.2016 05:16 2,3 C 97 % 1005,2 hPa 0,0 l/m 6,7 km/h (2 Bft) SW 230 0 min 0,000 mm 0,0 UV-I 0 W/m 1,9 C 2,0 C 9,7 km/h (2 Bft) 97,73 %
07.11.2016 05:18 2,3 C 97 % 1005,2 hPa 0,2 l/m 8,2 km/h (2 Bft) W-SW 254 0 min 0,000 mm 0,0 UV-I 0 W/m 1,9 C 0,6 C 11,3 km/h (2 Bft) 100,00 %
07.11.2016 05:20 2,3 C 97 % 1005,3 hPa 0,0 l/m 7,1 km/h (2 Bft) S-SW 212 0 min 0,000 mm 0,0 UV-I 0 W/m 1,9 C 1,6 C 9,7 km/h (2 Bft) 100,00 %
07.11.2016 05:22 2,3 C 97 % 1005,2 hPa 0,0 l/m 6,7 km/h (2 Bft) SW 234 0 min 0,000 mm 0,0 UV-I 0 W/m 1,9 C 2,0 C 9,7 km/h (2 Bft) 98,00 %
07.11.2016 05:24 2,3 C 97 % 1005,1 hPa 0,0 l/m 6,8 km/h (2 Bft) W-SW 257 0 min 0,000 mm 0,0 UV-I 0 W/m 1,9 C 1,9 C 14,5 km/h (3 Bft) 100,00 %
07.11.2016 05:26 2,3 C 97 % 1005,2 hPa 0,0 l/m 7,3 km/h (2 Bft) SW 231 0 min 0,000 mm 0,0 UV-I 0 W/m 1,9 C 1,4 C 12,9 km/h (3 Bft) 100,00 %
07.11.2016 05:28 2,3 C 97 % 1005,1 hPa 0,0 l/m 6,2 km/h (2 Bft) W-SW 247 0 min 0,000 mm 0,0 UV-I 0 W/m 1,9 C 2,3 C 8,0 km/h (2 Bft) 100,00 %
07.11.2016 05:30 2,3 C 97 % 1005,1 hPa 0,0 l/m 6,2 km/h (2 Bft) SW 236 0 min 0,000 mm 0,0 UV-I 0 W/m 1,9 C 2,3 C 8,0 km/h (2 Bft) 100,00 %
07.11.2016 05:32 2,3 C 97 % 1005,1 hPa 0,0 l/m 7,8 km/h (2 Bft) SW 231 0 min 0,000 mm 0,0 UV-I 0 W/m 1,9 C 1,0 C 11,3 km/h (2 Bft) 100,00 %
07.11.2016 05:34 2,3 C 97 % 1005,1 hPa 0,0 l/m 9,4 km/h (2 Bft) SW 225 0 min 0,000 mm 0,0 UV-I 0 W/m 1,9 C -0,4 C 16,1 km/h (3 Bft) 98,11 %
07.11.2016 05:36 2,3 C 97 % 1005,1 hPa 0,0 l/m 6,8 km/h (2 Bft) SW 223 0 min 0,000 mm 0,0 UV-I 0 W/m 1,9 C 1,9 C 12,9 km/h (3 Bft) 100,00 %
07.11.2016 05:38 2,3 C 97 % 1005,1 hPa 0,0 l/m 7,3 km/h (2 Bft) W-SW 241 0 min 0,000 mm 0,0 UV-I 0 W/m 1,9 C 1,4 C 14,5 km/h (3 Bft) 100,00 %
07.11.2016 05:40 2,3 C 97 % 1005,1 hPa 0,0 l/m 10,2 km/h (2 Bft) S-SW 207 0 min 0,000 mm 0,0 UV-I 0 W/m 1,9 C -1,1 C 16,1 km/h (3 Bft) 97,87 %
07.11.2016 05:42 2,3 C 97 % 1005,1 hPa 0,0 l/m 8,0 km/h (2 Bft) W-SW 246 0 min 0,000 mm 0,0 UV-I 0 W/m 1,9 C 0,8 C 12,9 km/h (3 Bft) 100,00 %
07.11.2016 05:44 2,2 C 97 % 1005,1 hPa 0,0 l/m 8,6 km/h (2 Bft) S-SW 201 0 min 0,000 mm 0,0 UV-I 0 W/m 1,8 C 0,1 C 12,9 km/h (3 Bft) 100,00 %
07.11.2016 05:46 2,2 C 97 % 1005,0 hPa 0,0 l/m 8,4 km/h (2 Bft) SW 233 0 min 0,000 mm 0,0 UV-I 0 W/m 1,8 C 0,3 C 14,5 km/h (3 Bft) 98,31 %
07.11.2016 05:48 2,2 C 97 % 1005,1 hPa 0,0 l/m 7,7 km/h (2 Bft) S-SW 213 0 min 0,000 mm 0,0 UV-I 0 W/m 1,8 C 0,9 C 16,1 km/h (3 Bft) 100,00 %
07.11.2016 05:50 2,2 C 97 % 1005,1 hPa 0,0 l/m 9,2 km/h (2 Bft) S-SW 209 0 min 0,000 mm 0,0 UV-I 0 W/m 1,8 C -0,4 C 12,9 km/h (3 Bft) 100,00 %
07.11.2016 05:52 2,2 C 97 % 1005,1 hPa 0,0 l/m 8,4 km/h (2 Bft) SW 223 0 min 0,000 mm 0,0 UV-I 0 W/m 1,8 C 0,3 C 14,5 km/h (3 Bft) 100,00 %
07.11.2016 05:54 2,2 C 97 % 1005,0 hPa 0,0 l/m 7,5 km/h (2 Bft) S-SW 202 0 min 0,000 mm 0,0 UV-I 0 W/m 1,8 C 1,1 C 11,3 km/h (2 Bft) 100,00 %
07.11.2016 05:56 2,2 C 97 % 1005,1 hPa 0,0 l/m 7,7 km/h (2 Bft) S-SW 213 0 min 0,000 mm 0,0 UV-I 0 W/m 1,8 C 0,9 C 11,3 km/h (2 Bft) 100,00 %
07.11.2016 05:58 2,2 C 97 % 1005,1 hPa 0,0 l/m 6,1 km/h (2 Bft) SW 236 0 min 0,000 mm 0,0 UV-I 0 W/m 1,8 C 2,2 C 12,9 km/h (3 Bft) 100,00 %
07.11.2016 06:00 2,2 C 97 % 1005,1 hPa 0,0 l/m 8,6 km/h (2 Bft) S 185 0 min 0,000 mm 0,0 UV-I 0 W/m 1,8 C 0,1 C 12,9 km/h (3 Bft) 98,11 %
07.11.2016 06:02 2,2 C 97 % 1005,1 hPa 0,0 l/m 9,1 km/h (2 Bft) S-SW 196 0 min 0,000 mm 0,0 UV-I 0 W/m 1,8 C -0,3 C 12,9 km/h (3 Bft) 97,37 %
07.11.2016 06:04 2,2 C 97 % 1005,1 hPa 0,0 l/m 5,4 km/h (1 Bft) S 183 0 min 0,000 mm 0,0 UV-I 0 W/m 1,8 C 2,2 C 9,7 km/h (2 Bft) 100,00 %
07.11.2016 06:06 2,3 C 97 % 1005,1 hPa 0,0 l/m 7,4 km/h (2 Bft) S-SW 196 0 min 0,000 mm 0,0 UV-I 0 W/m 1,9 C 1,3 C 12,9 km/h (3 Bft) 97,56 %
07.11.2016 06:08 2,2 C 97 % 1005,1 hPa 0,0 l/m 6,3 km/h (2 Bft) SW 225 0 min 0,000 mm 0,0 UV-I 0 W/m 1,8 C 2,2 C 12,9 km/h (3 Bft) 97,87 %
07.11.2016 06:10 2,3 C 97 % 1005,2 hPa 0,0 l/m 9,4 km/h (2 Bft) SW 219 0 min 0,000 mm 0,0 UV-I 0 W/m 1,9 C -0,4 C 16,1 km/h (3 Bft) 100,00 %
07.11.2016 06:12 2,2 C 97 % 1005,4 hPa 0,2 l/m 7,9 km/h (2 Bft) S 182 0 min 0,000 mm 0,0 UV-I 0 W/m 1,8 C 0,8 C 12,9 km/h (3 Bft) 100,00 %
07.11.2016 06:14 2,2 C 97 % 1005,4 hPa 0,0 l/m 9,1 km/h (2 Bft) S-SW 194 0 min 0,000 mm 0,0 UV-I 0 W/m 1,8 C -0,3 C 12,9 km/h (3 Bft) 100,00 %
07.11.2016 06:16 2,2 C 97 % 1005,5 hPa 0,0 l/m 9,5 km/h (2 Bft) S-SW 204 0 min 0,000 mm 0,0 UV-I 0 W/m 1,8 C -0,6 C 12,9 km/h (3 Bft) 97,56 %
07.11.2016 06:18 2,2 C 97 % 1005,5 hPa 0,0 l/m 7,0 km/h (2 Bft) SW 232 0 min 0,000 mm 0,0 UV-I 0 W/m 1,8 C 1,6 C 11,3 km/h (2 Bft) 100,00 %
07.11.2016 06:20 2,2 C 97 % 1005,6 hPa 0,0 l/m 7,4 km/h (2 Bft) S-SW 197 0 min 0,000 mm 0,0 UV-I 0 W/m 1,8 C 1,2 C 11,3 km/h (2 Bft) 100,00 %
07.11.2016 06:22 2,3 C 97 % 1005,6 hPa 0,0 l/m 7,8 km/h (2 Bft) S-SW 210 0 min 0,000 mm 0,0 UV-I 0 W/m 1,9 C 1,0 C 12,9 km/h (3 Bft) 100,00 %
07.11.2016 06:24 2,3 C 97 % 1005,5 hPa 0,0 l/m 10,3 km/h (2 Bft) SW 221 0 min 0,000 mm 0,0 UV-I 0 W/m 1,9 C -1,1 C 16,1 km/h (3 Bft) 97,87 %
07.11.2016 06:26 2,3 C 97 % 1005,5 hPa 0,0 l/m 10,5 km/h (2 Bft) S-SW 205 0 min 0,000 mm 0,0 UV-I 0 W/m 1,9 C -1,3 C 16,1 km/h (3 Bft) 97,87 %
07.11.2016 06:28 2,3 C 97 % 1005,5 hPa 0,0 l/m 6,9 km/h (2 Bft) S-SW 203 0 min 0,000 mm 0,0 UV-I 0 W/m 1,9 C 1,8 C 12,9 km/h (3 Bft) 96,00 %
07.11.2016 06:30 2,3 C 97 % 1005,5 hPa 0,0 l/m 6,8 km/h (2 Bft) SW 235 0 min 0,000 mm 0,0 UV-I 0 W/m 1,9 C 1,9 C 9,7 km/h (2 Bft) 100,00 %
07.11.2016 06:32 2,3 C 97 % 1005,6 hPa 0,0 l/m 7,5 km/h (2 Bft) SW 225 0 min 0,000 mm 0,0 UV-I 0 W/m 1,9 C 1,2 C 9,7 km/h (2 Bft) 98,00 %
07.11.2016 06:34 2,3 C 97 % 1005,6 hPa 0,0 l/m 8,1 km/h (2 Bft) S-SW 205 0 min 0,000 mm 0,0 UV-I 0 W/m 1,9 C 0,7 C 11,3 km/h (2 Bft) 100,00 %
07.11.2016 06:36 2,3 C 97 % 1005,6 hPa 0,0 l/m 6,5 km/h (2 Bft) S-SW 210 0 min 0,000 mm 0,0 UV-I 0 W/m 1,9 C 2,2 C 9,7 km/h (2 Bft) 96,36 %
07.11.2016 06:38 2,3 C 97 % 1005,5 hPa 0,0 l/m 6,2 km/h (2 Bft) W-SW 244 0 min 0,000 mm 0,0 UV-I 0 W/m 1,9 C 2,3 C 8,0 km/h (2 Bft) 95,74 %
07.11.2016 06:40 2,3 C 97 % 1005,5 hPa 0,0 l/m 6,6 km/h (2 Bft) S-SW 200 0 min 0,000 mm 0,0 UV-I 0 W/m 1,9 C 2,1 C 9,7 km/h (2 Bft) 100,00 %
07.11.2016 06:42 2,3 C 97 % 1005,5 hPa 0,0 l/m 7,3 km/h (2 Bft) SW 236 0 min 0,000 mm 0,0 UV-I 0 W/m 1,9 C 1,4 C 14,5 km/h (3 Bft) 96,43 %
07.11.2016 06:44 2,3 C 97 % 1005,5 hPa 0,0 l/m 6,7 km/h (2 Bft) W-SW 241 0 min 0,000 mm 0,0 UV-I 0 W/m 1,9 C 2,0 C 11,3 km/h (2 Bft) 96,55 %
07.11.2016 06:46 2,3 C 97 % 1005,5 hPa 0,0 l/m 6,1 km/h (2 Bft) SW 214 0 min 0,000 mm 0,0 UV-I 0 W/m 1,9 C 2,3 C 12,9 km/h (3 Bft) 96,92 %
07.11.2016 06:48 2,3 C 97 % 1005,5 hPa 0,0 l/m 6,1 km/h (2 Bft) W-SW 238 0 min 0,000 mm 0,0 UV-I 0 W/m 1,9 C 2,3 C 9,7 km/h (2 Bft) 97,56 %
07.11.2016 06:50 2,3 C 97 % 1005,6 hPa 0,0 l/m 4,6 km/h (1 Bft) W-SW 248 0 min 0,000 mm 0,0 UV-I 0 W/m 1,9 C 2,3 C 9,7 km/h (2 Bft) 95,12 %
07.11.2016 06:52 2,3 C 97 % 1005,6 hPa 0,0 l/m 6,2 km/h (2 Bft) SW 217 0 min 0,000 mm 0,0 UV-I 0 W/m 1,9 C 2,3 C 9,7 km/h (2 Bft) 98,11 %
07.11.2016 06:54 2,3 C 97 % 1005,6 hPa 0,0 l/m 6,1 km/h (2 Bft) SW 225 0 min 0,000 mm 0,0 UV-I 0 W/m 1,9 C 2,3 C 9,7 km/h (2 Bft) 97,87 %
07.11.2016 06:56 2,3 C 97 % 1005,7 hPa 0,0 l/m 5,4 km/h (1 Bft) S-SW 205 0 min 0,000 mm 0,0 UV-I 0 W/m 1,9 C 2,3 C 9,7 km/h (2 Bft) 96,00 %
07.11.2016 06:58 2,3 C 97 % 1005,7 hPa 0,0 l/m 5,7 km/h (1 Bft) S-SW 212 0 min 0,000 mm 0,0 UV-I 0 W/m 1,9 C 2,3 C 8,0 km/h (2 Bft) 98,00 %
07.11.2016 07:00 2,3 C 97 % 1005,7 hPa 0,0 l/m 6,1 km/h (2 Bft) S-SW 212 0 min 0,000 mm 0,0 UV-I 2 W/m 1,9 C 2,3 C 9,7 km/h (2 Bft) 97,37 %
07.11.2016 07:02 2,3 C 97 % 1005,9 hPa 0,0 l/m 5,9 km/h (2 Bft) S-SW 205 0 min 0,000 mm 0,0 UV-I 4 W/m 1,9 C 2,3 C 9,7 km/h (2 Bft) 96,00 %
07.11.2016 07:04 2,3 C 97 % 1005,9 hPa 0,0 l/m 6,5 km/h (2 Bft) S-SW 212 0 min 0,000 mm 0,0 UV-I 0 W/m 1,9 C 2,2 C 9,7 km/h (2 Bft) 97,87 %
07.11.2016 07:06 2,3 C 97 % 1006,0 hPa 0,0 l/m 7,8 km/h (2 Bft) S-SW 207 0 min 0,000 mm 0,0 UV-I 0 W/m 1,9 C 1,0 C 11,3 km/h (2 Bft) 98,00 %
07.11.2016 07:08 2,3 C 97 % 1005,9 hPa 0,0 l/m 6,2 km/h (2 Bft) SW 234 0 min 0,000 mm 0,0 UV-I 3 W/m 1,9 C 2,3 C 8,0 km/h (2 Bft) 94,29 %
07.11.2016 07:10 2,4 C 97 % 1005,9 hPa 0,0 l/m 5,5 km/h (1 Bft) SW 229 0 min 0,000 mm 0,0 UV-I 5 W/m 2,0 C 2,4 C 9,7 km/h (2 Bft) 96,23 %
07.11.2016 07:12 2,4 C 97 % 1005,9 hPa 0,0 l/m 5,3 km/h (1 Bft) W-SW 241 0 min 0,000 mm 0,0 UV-I 5 W/m 2,0 C 2,4 C 8,0 km/h (2 Bft) 98,21 %
07.11.2016 07:14 2,4 C 97 % 1005,9 hPa 0,0 l/m 6,1 km/h (2 Bft) W-SW 238 0 min 0,000 mm 0,0 UV-I 7 W/m 2,0 C 2,4 C 9,7 km/h (2 Bft) 100,00 %
07.11.2016 07:16 2,4 C 97 % 1006,0 hPa 0,0 l/m 7,1 km/h (2 Bft) SW 229 0 min 0,000 mm 0,0 UV-I 7 W/m 2,0 C 1,7 C 9,7 km/h (2 Bft) 98,18 %
07.11.2016 07:18 2,4 C 97 % 1006,0 hPa 0,0 l/m 6,1 km/h (2 Bft) W-SW 246 0 min 0,000 mm 0,0 UV-I 8 W/m 2,0 C 2,4 C 8,0 km/h (2 Bft) 100,00 %
07.11.2016 07:20 2,4 C 97 % 1006,0 hPa 0,0 l/m 6,5 km/h (2 Bft) SW 234 0 min 0,000 mm 0,0 UV-I 10 W/m 2,0 C 2,3 C 8,0 km/h (2 Bft) 100,00 %
07.11.2016 07:22 2,4 C 97 % 1006,0 hPa 0,0 l/m 5,7 km/h (1 Bft) W-SW 250 0 min 0,000 mm 0,0 UV-I 12 W/m 2,0 C 2,4 C 8,0 km/h (2 Bft) 98,00 %
07.11.2016 07:24 2,4 C 97 % 1005,9 hPa 0,0 l/m 5,5 km/h (1 Bft) SW 226 0 min 0,000 mm 0,0 UV-I 14 W/m 2,0 C 2,4 C 8,0 km/h (2 Bft) 100,00 %
07.11.2016 07:26 2,4 C 97 % 1005,9 hPa 0,0 l/m 5,3 km/h (1 Bft) W-SW 241 0 min 0,000 mm 0,0 UV-I 15 W/m 2,0 C 2,4 C 8,0 km/h (2 Bft) 100,00 %
07.11.2016 07:28 2,4 C 97 % 1005,9 hPa 0,0 l/m 6,5 km/h (2 Bft) W-SW 250 0 min 0,000 mm 0,0 UV-I 15 W/m 2,0 C 2,3 C 9,7 km/h (2 Bft) 100,00 %
07.11.2016 07:30 2,4 C 97 % 1005,9 hPa 0,0 l/m 6,4 km/h (2 Bft) SW 225 0 min 0,000 mm 0,0 UV-I 14 W/m 2,0 C 2,4 C 9,7 km/h (2 Bft) 100,00 %
07.11.2016 07:32 2,4 C 97 % 1006,0 hPa 0,0 l/m 6,1 km/h (2 Bft) SW 235 0 min 0,000 mm 0,0 UV-I 13 W/m 2,0 C 2,4 C 9,7 km/h (2 Bft) 100,00 %
07.11.2016 07:34 2,4 C 97 % 1006,0 hPa 0,0 l/m 5,3 km/h (1 Bft) SW 228 0 min 0,000 mm 0,0 UV-I 14 W/m 2,0 C 2,4 C 8,0 km/h (2 Bft) 100,00 %
07.11.2016 07:36 2,4 C 97 % 1006,0 hPa 0,0 l/m 6,4 km/h (2 Bft) W-SW 250 0 min 0,000 mm 0,0 UV-I 14 W/m 2,0 C 2,4 C 9,7 km/h (2 Bft) 97,14 %
07.11.2016 07:38 2,4 C 97 % 1006,0 hPa 0,0 l/m 7,4 km/h (2 Bft) SW 218 0 min 0,000 mm 0,0 UV-I 15 W/m 2,0 C 1,4 C 9,7 km/h (2 Bft) 100,00 %
07.11.2016 07:40 2,4 C 96 % 1006,0 hPa 0,0 l/m 5,7 km/h (1 Bft) SW 221 0 min 0,000 mm 0,0 UV-I 16 W/m 1,8 C 2,4 C 8,0 km/h (2 Bft) 97,56 %
07.11.2016 07:42 2,5 C 96 % 1006,1 hPa 0,0 l/m 6,7 km/h (2 Bft) SW 232 0 min 0,000 mm 0,0 UV-I 18 W/m 1,9 C 2,2 C 9,7 km/h (2 Bft) 100,00 %
07.11.2016 07:44 2,5 C 97 % 1006,1 hPa 0,0 l/m 6,9 km/h (2 Bft) SW 235 0 min 0,000 mm 0,0 UV-I 18 W/m 2,1 C 2,0 C 12,9 km/h (3 Bft) 98,11 %
07.11.2016 07:46 2,5 C 97 % 1006,2 hPa 0,0 l/m 7,2 km/h (2 Bft) SW 232 0 min 0,000 mm 0,0 UV-I 18 W/m 2,1 C 1,7 C 9,7 km/h (2 Bft) 100,00 %
07.11.2016 07:48 2,5 C 97 % 1006,2 hPa 0,0 l/m 5,7 km/h (1 Bft) W-SW 252 0 min 0,000 mm 0,0 UV-I 18 W/m 2,1 C 2,5 C 8,0 km/h (2 Bft) 100,00 %
07.11.2016 07:50 2,5 C 97 % 1006,1 hPa 0,0 l/m 4,5 km/h (1 Bft) S-SW 209 0 min 0,000 mm 0,0 UV-I 19 W/m 2,1 C 2,5 C 6,4 km/h (2 Bft) 100,00 %
07.11.2016 07:52 2,5 C 97 % 1006,1 hPa 0,0 l/m 6,6 km/h (2 Bft) W-SW 238 0 min 0,000 mm 0,0 UV-I 21 W/m 2,1 C 2,3 C 11,3 km/h (2 Bft) 100,00 %
07.11.2016 07:54 2,5 C 97 % 1006,1 hPa 0,0 l/m 7,6 km/h (2 Bft) SW 228 0 min 0,000 mm 0,0 UV-I 24 W/m 2,1 C 1,3 C 12,9 km/h (3 Bft) 100,00 %
07.11.2016 07:56 2,6 C 97 % 1006,1 hPa 0,0 l/m 7,3 km/h (2 Bft) W-SW 249 0 min 0,000 mm 0,0 UV-I 26 W/m 2,2 C 1,7 C 12,9 km/h (3 Bft) 100,00 %
07.11.2016 07:58 2,6 C 97 % 1006,1 hPa 0,0 l/m 6,5 km/h (2 Bft) SW 232 0 min 0,000 mm 0,0 UV-I 31 W/m 2,2 C 2,5 C 11,3 km/h (2 Bft) 100,00 %
07.11.2016 08:00 2,6 C 97 % 1006,1 hPa 0,0 l/m 7,7 km/h (2 Bft) W-SW 240 0 min 0,000 mm 0,0 UV-I 36 W/m 2,2 C 1,4 C 11,3 km/h (2 Bft) 100,00 %
07.11.2016 08:02 2,6 C 96 % 1006,1 hPa 0,0 l/m 5,7 km/h (1 Bft) SW 229 0 min 0,000 mm 0,0 UV-I 39 W/m 2,0 C 2,6 C 9,7 km/h (2 Bft) 100,00 %
07.11.2016 08:04 2,6 C 97 % 1006,1 hPa 0,0 l/m 5,5 km/h (1 Bft) SW 215 0 min 0,000 mm 0,0 UV-I 42 W/m 2,2 C 2,6 C 8,0 km/h (2 Bft) 100,00 %
07.11.2016 08:06 2,6 C 96 % 1006,1 hPa 0,0 l/m 7,0 km/h (2 Bft) SW 227 0 min 0,000 mm 0,0 UV-I 46 W/m 2,0 C 2,0 C 9,7 km/h (2 Bft) 96,00 %
07.11.2016 08:08 2,6 C 96 % 1006,1 hPa 0,0 l/m 6,0 km/h (2 Bft) SW 217 0 min 0,000 mm 0,0 UV-I 47 W/m 2,0 C 2,6 C 9,7 km/h (2 Bft) 97,87 %
07.11.2016 08:10 2,6 C 96 % 1006,0 hPa 0,0 l/m 5,8 km/h (2 Bft) SW 228 0 min 0,000 mm 0,0 UV-I 51 W/m 2,0 C 2,6 C 11,3 km/h (2 Bft) 98,00 %
07.11.2016 08:12 2,7 C 96 % 1006,0 hPa 0,0 l/m 4,6 km/h (1 Bft) W-SW 238 0 min 0,000 mm 0,0 UV-I 57 W/m 2,1 C 2,7 C 6,4 km/h (2 Bft) 97,14 %
07.11.2016 08:14 2,7 C 96 % 1006,0 hPa 0,0 l/m 5,1 km/h (1 Bft) SW 231 0 min 0,000 mm 0,0 UV-I 61 W/m 2,1 C 2,7 C 8,0 km/h (2 Bft) 100,00 %
07.11.2016 08:16 2,7 C 96 % 1006,1 hPa 0,0 l/m 5,9 km/h (2 Bft) W-SW 240 0 min 0,000 mm 0,0 UV-I 63 W/m 2,1 C 2,7 C 9,7 km/h (2 Bft) 100,00 %
07.11.2016 08:18 2,7 C 96 % 1006,1 hPa 0,0 l/m 5,7 km/h (1 Bft) S-SW 192 0 min 0,000 mm 0,0 UV-I 65 W/m 2,1 C 2,7 C 6,4 km/h (2 Bft) 97,87 %
07.11.2016 08:20 2,7 C 96 % 1006,1 hPa 0,0 l/m 5,7 km/h (1 Bft) S-SW 211 0 min 0,000 mm 0,0 UV-I 66 W/m 2,1 C 2,7 C 8,0 km/h (2 Bft) 100,00 %
07.11.2016 08:22 2,7 C 96 % 1006,1 hPa 0,0 l/m 5,9 km/h (2 Bft) S-SW 196 0 min 0,000 mm 0,0 UV-I 66 W/m 2,1 C 2,7 C 9,7 km/h (2 Bft) 97,87 %
07.11.2016 08:24 2,7 C 97 % 1006,2 hPa 0,0 l/m 6,6 km/h (2 Bft) S-SW 211 0 min 0,000 mm 0,0 UV-I 62 W/m 2,3 C 2,5 C 11,3 km/h (2 Bft) 100,00 %
07.11.2016 08:26 2,7 C 97 % 1006,2 hPa 0,0 l/m 7,0 km/h (2 Bft) SW 226 0 min 0,000 mm 0,0 UV-I 59 W/m 2,3 C 2,1 C 11,3 km/h (2 Bft) 98,00 %
07.11.2016 08:28 2,8 C 97 % 1006,1 hPa 0,0 l/m 6,5 km/h (2 Bft) S-SW 213 0 min 0,000 mm 0,0 UV-I 61 W/m 2,4 C 2,7 C 9,7 km/h (2 Bft) 98,11 %
07.11.2016 08:30 2,8 C 96 % 1006,2 hPa 0,0 l/m 5,4 km/h (1 Bft) W-SW 244 0 min 0,000 mm 0,0 UV-I 73 W/m 2,2 C 2,8 C 8,0 km/h (2 Bft) 100,00 %
07.11.2016 08:32 2,8 C 96 % 1006,2 hPa 0,0 l/m 6,2 km/h (2 Bft) SW 214 0 min 0,000 mm 0,0 UV-I 85 W/m 2,2 C 2,8 C 9,7 km/h (2 Bft) 100,00 %
07.11.2016 08:34 2,8 C 97 % 1006,2 hPa 0,0 l/m 5,9 km/h (2 Bft) S 187 0 min 0,000 mm 0,0 UV-I 93 W/m 2,4 C 2,8 C 12,9 km/h (3 Bft) 98,11 %
07.11.2016 08:36 2,9 C 96 % 1006,2 hPa 0,0 l/m 7,8 km/h (2 Bft) S-SW 204 0 min 0,000 mm 0,0 UV-I 97 W/m 2,3 C 1,6 C 12,9 km/h (3 Bft) 98,00 %
07.11.2016 08:38 2,9 C 96 % 1006,3 hPa 0,0 l/m 8,0 km/h (2 Bft) S-SW 209 0 min 0,000 mm 0,0 UV-I 98 W/m 2,3 C 1,4 C 11,3 km/h (2 Bft) 100,00 %
07.11.2016 08:40 2,9 C 96 % 1006,3 hPa 0,0 l/m 7,2 km/h (2 Bft) SW 234 0 min 0,000 mm 0,0 UV-I 103 W/m 2,3 C 2,1 C 11,3 km/h (2 Bft) 96,00 %
07.11.2016 08:42 2,9 C 96 % 1006,3 hPa 0,0 l/m 7,9 km/h (2 Bft) S 187 0 min 0,000 mm 0,0 UV-I 106 W/m 2,3 C 1,5 C 12,9 km/h (3 Bft) 97,56 %
07.11.2016 08:44 3,0 C 96 % 1006,3 hPa 0,0 l/m 7,3 km/h (2 Bft) S-SW 212 0 min 0,000 mm 0,0 UV-I 113 W/m 2,4 C 2,1 C 11,3 km/h (2 Bft) 96,43 %
07.11.2016 08:46 3,0 C 96 % 1006,3 hPa 0,0 l/m 7,8 km/h (2 Bft) SW 231 0 min 0,000 mm 0,0 UV-I 125 W/m 2,4 C 1,7 C 14,5 km/h (3 Bft) 94,74 %
07.11.2016 08:48 3,1 C 96 % 1006,3 hPa 0,0 l/m 8,0 km/h (2 Bft) S 190 0 min 0,000 mm 0,0 UV-I 131 W/m 2,5 C 1,6 C 12,9 km/h (3 Bft) 96,43 %
07.11.2016 08:50 3,1 C 96 % 1006,2 hPa 0,0 l/m 5,1 km/h (1 Bft) W-SW 239 0 min 0,000 mm 0,0 UV-I 132 W/m 2,5 C 3,1 C 9,7 km/h (2 Bft) 95,74 %
07.11.2016 08:52 3,1 C 96 % 1006,2 hPa 0,0 l/m 6,8 km/h (2 Bft) SW 231 0 min 0,000 mm 0,0 UV-I 130 W/m 2,5 C 2,7 C 12,9 km/h (3 Bft) 97,37 %
07.11.2016 08:54 3,2 C 96 % 1006,3 hPa 0,0 l/m 6,8 km/h (2 Bft) W-SW 240 0 min 0,000 mm 0,0 UV-I 129 W/m 2,6 C 2,8 C 11,3 km/h (2 Bft) 98,00 %
07.11.2016 08:56 3,2 C 96 % 1006,3 hPa 0,0 l/m 6,9 km/h (2 Bft) SW 232 0 min 0,000 mm 0,0 UV-I 124 W/m 2,6 C 2,7 C 12,9 km/h (3 Bft) 97,73 %
07.11.2016 08:58 3,3 C 96 % 1006,3 hPa 0,0 l/m 4,6 km/h (1 Bft) S-SW 207 0 min 0,000 mm 0,0 UV-I 118 W/m 2,7 C 3,3 C 11,3 km/h (2 Bft) 96,23 %
07.11.2016 09:00 3,3 C 96 % 1006,3 hPa 0,0 l/m 4,4 km/h (1 Bft) SW 229 0 min 0,025 mm 0,0 UV-I 119 W/m 2,7 C 3,3 C 6,4 km/h (2 Bft) 100,00 %
07.11.2016 09:02 3,3 C 96 % 1006,4 hPa 0,0 l/m 6,8 km/h (2 Bft) W-SW 238 0 min 0,000 mm 0,0 UV-I 126 W/m 2,7 C 2,9 C 9,7 km/h (2 Bft) 96,61 %
07.11.2016 09:04 3,3 C 96 % 1006,4 hPa 0,0 l/m 5,4 km/h (1 Bft) W-SW 242 0 min 0,000 mm 0,0 UV-I 126 W/m 2,7 C 3,3 C 8,0 km/h (2 Bft) 97,87 %
07.11.2016 09:06 3,3 C 96 % 1006,4 hPa 0,0 l/m 7,3 km/h (2 Bft) SW 231 0 min 0,000 mm 0,0 UV-I 125 W/m 2,7 C 2,5 C 16,1 km/h (3 Bft) 98,00 %
07.11.2016 09:08 3,4 C 95 % 1006,4 hPa 0,0 l/m 5,5 km/h (1 Bft) SW 232 0 min 0,000 mm 0,0 UV-I 123 W/m 2,7 C 3,4 C 8,0 km/h (2 Bft) 97,30 %
07.11.2016 09:10 3,4 C 95 % 1006,4 hPa 0,0 l/m 6,6 km/h (2 Bft) S-SW 208 0 min 0,000 mm 0,0 UV-I 121 W/m 2,7 C 3,2 C 11,3 km/h (2 Bft) 96,43 %
07.11.2016 09:12 3,4 C 95 % 1006,4 hPa 0,0 l/m 4,7 km/h (1 Bft) SW 229 0 min 0,000 mm 0,0 UV-I 120 W/m 2,7 C 3,4 C 9,7 km/h (2 Bft) 97,37 %
07.11.2016 09:14 3,4 C 95 % 1006,4 hPa 0,0 l/m 6,0 km/h (2 Bft) W-SW 238 0 min 0,000 mm 0,0 UV-I 117 W/m 2,7 C 3,4 C 8,0 km/h (2 Bft) 98,11 %
07.11.2016 09:16 3,5 C 95 % 1006,4 hPa 0,0 l/m 7,5 km/h (2 Bft) W-SW 243 0 min 0,000 mm 0,0 UV-I 113 W/m 2,8 C 2,5 C 11,3 km/h (2 Bft) 100,00 %
07.11.2016 09:18 3,4 C 95 % 1006,4 hPa 0,0 l/m 7,6 km/h (2 Bft) W 267 0 min 0,000 mm 0,0 UV-I 107 W/m 2,7 C 2,3 C 11,3 km/h (2 Bft) 97,62 %
07.11.2016 09:20 3,5 C 95 % 1006,3 hPa 0,0 l/m 5,3 km/h (1 Bft) W-SW 250 0 min 0,000 mm 0,0 UV-I 102 W/m 2,8 C 3,5 C 9,7 km/h (2 Bft) 100,00 %
07.11.2016 09:22 3,5 C 95 % 1006,2 hPa 0,0 l/m 3,9 km/h (1 Bft) W-SW 244 0 min 0,000 mm 0,0 UV-I 102 W/m 2,8 C 3,5 C 6,4 km/h (2 Bft) 97,87 %
07.11.2016 09:24 3,5 C 95 % 1006,2 hPa 0,0 l/m 3,4 km/h (1 Bft) W-SW 244 0 min 0,000 mm 0,0 UV-I 100 W/m 2,8 C 3,5 C 6,4 km/h (2 Bft) 100,00 %
07.11.2016 09:26 3,5 C 95 % 1006,4 hPa 0,0 l/m 5,2 km/h (1 Bft) W 264 0 min 0,000 mm 0,0 UV-I 101 W/m 2,8 C 3,5 C 9,7 km/h (2 Bft) 100,00 %
07.11.2016 09:28 3,5 C 95 % 1006,4 hPa 0,0 l/m 5,2 km/h (1 Bft) W-SW 243 0 min 0,000 mm 0,0 UV-I 106 W/m 2,8 C 3,5 C 8,0 km/h (2 Bft) 92,68 %
07.11.2016 09:30 3,5 C 95 % 1006,4 hPa 0,0 l/m 5,5 km/h (1 Bft) W-SW 250 0 min 0,000 mm 0,0 UV-I 114 W/m 2,8 C 3,5 C 11,3 km/h (2 Bft) 95,45 %
07.11.2016 09:32 3,5 C 95 % 1006,5 hPa 0,0 l/m 3,5 km/h (1 Bft) W-SW 255 0 min 0,000 mm 0,0 UV-I 117 W/m 2,8 C 3,5 C 6,4 km/h (2 Bft) 100,00 %
07.11.2016 09:34 3,6 C 95 % 1006,5 hPa 0,0 l/m 5,1 km/h (1 Bft) SW 215 0 min 0,000 mm 0,0 UV-I 120 W/m 2,9 C 3,6 C 8,0 km/h (2 Bft) 100,00 %
07.11.2016 09:36 3,6 C 95 % 1006,6 hPa 0,0 l/m 7,7 km/h (2 Bft) SW 227 0 min 0,000 mm 0,0 UV-I 120 W/m 2,9 C 2,4 C 9,7 km/h (2 Bft) 98,11 %
07.11.2016 09:38 3,6 C 95 % 1006,6 hPa 0,0 l/m 6,5 km/h (2 Bft) SW 223 0 min 0,000 mm 0,0 UV-I 125 W/m 2,9 C 3,5 C 9,7 km/h (2 Bft) 100,00 %
07.11.2016 09:40 3,7 C 95 % 1006,6 hPa 0,0 l/m 5,1 km/h (1 Bft) SW 224 0 min 0,000 mm 0,0 UV-I 126 W/m 3,0 C 3,7 C 8,0 km/h (2 Bft) 100,00 %
07.11.2016 09:42 3,7 C 95 % 1006,5 hPa 0,0 l/m 5,4 km/h (1 Bft) S-SW 211 0 min 0,000 mm 0,0 UV-I 122 W/m 3,0 C 3,7 C 8,0 km/h (2 Bft) 97,56 %
07.11.2016 09:44 3,7 C 94 % 1006,6 hPa 0,0 l/m 4,4 km/h (1 Bft) W-SW 240 0 min 0,000 mm 0,0 UV-I 123 W/m 2,8 C 3,7 C 6,4 km/h (2 Bft) 96,43 %
07.11.2016 09:46 3,8 C 95 % 1006,6 hPa 0,0 l/m 4,3 km/h (1 Bft) SW 227 0 min 0,000 mm 0,0 UV-I 132 W/m 3,1 C 3,8 C 8,0 km/h (2 Bft) 100,00 %
07.11.2016 09:48 3,8 C 95 % 1006,6 hPa 0,0 l/m 5,1 km/h (1 Bft) SW 236 0 min 0,000 mm 0,0 UV-I 135 W/m 3,1 C 3,8 C 8,0 km/h (2 Bft) 100,00 %
07.11.2016 09:50 3,8 C 94 % 1006,6 hPa 0,0 l/m 8,6 km/h (2 Bft) W-SW 250 0 min 0,000 mm 0,0 UV-I 128 W/m 2,9 C 1,8 C 11,3 km/h (2 Bft) 100,00 %
07.11.2016 09:52 3,8 C 94 % 1006,7 hPa 0,0 l/m 8,3 km/h (2 Bft) W-SW 248 0 min 0,000 mm 0,0 UV-I 123 W/m 2,9 C 2,1 C 12,9 km/h (3 Bft) 100,00 %
07.11.2016 09:54 3,8 C 94 % 1006,7 hPa 0,0 l/m 7,7 km/h (2 Bft) W-SW 251 0 min 0,000 mm 0,0 UV-I 122 W/m 2,9 C 2,6 C 14,5 km/h (3 Bft) 100,00 %
07.11.2016 09:56 3,8 C 94 % 1006,8 hPa 0,0 l/m 5,6 km/h (1 Bft) W 269 0 min 0,000 mm 0,0 UV-I 111 W/m 2,9 C 3,8 C 9,7 km/h (2 Bft) 100,00 %
07.11.2016 09:58 3,8 C 94 % 1006,8 hPa 0,0 l/m 6,2 km/h (2 Bft) W 264 0 min 0,000 mm 0,0 UV-I 113 W/m 2,9 C 3,8 C 9,7 km/h (2 Bft) 100,00 %
07.11.2016 10:00 3,8 C 94 % 1006,8 hPa 0,0 l/m 6,3 km/h (2 Bft) W 260 0 min 0,051 mm 0,0 UV-I 122 W/m 2,9 C 3,8 C 11,3 km/h (2 Bft) 100,00 %
07.11.2016 10:02 3,8 C 94 % 1006,8 hPa 0,0 l/m 6,2 km/h (2 Bft) W-SW 240 0 min 0,000 mm 0,0 UV-I 125 W/m 2,9 C 3,8 C 11,3 km/h (2 Bft) 97,87 %
07.11.2016 10:04 3,8 C 94 % 1006,9 hPa 0,0 l/m 5,2 km/h (1 Bft) W-SW 252 0 min 0,000 mm 0,0 UV-I 123 W/m 2,9 C 3,8 C 6,4 km/h (2 Bft) 100,00 %
07.11.2016 10:06 3,8 C 94 % 1006,9 hPa 0,0 l/m 5,9 km/h (2 Bft) W-SW 258 0 min 0,000 mm 0,0 UV-I 117 W/m 2,9 C 3,8 C 9,7 km/h (2 Bft) 100,00 %
07.11.2016 10:08 3,8 C 94 % 1006,9 hPa 0,0 l/m 3,7 km/h (1 Bft) W-SW 237 0 min 0,000 mm 0,0 UV-I 114 W/m 2,9 C 3,8 C 6,4 km/h (2 Bft) 94,74 %
07.11.2016 10:10 3,8 C 94 % 1006,9 hPa 0,0 l/m 4,5 km/h (1 Bft) W 262 0 min 0,000 mm 0,0 UV-I 113 W/m 2,9 C 3,8 C 6,4 km/h (2 Bft) 100,00 %
07.11.2016 10:12 3,8 C 94 % 1007,0 hPa 0,0 l/m 2,9 km/h (1 Bft) W 259 0 min 0,000 mm 0,0 UV-I 113 W/m 2,9 C 3,8 C 4,8 km/h (1 Bft) 100,00 %
07.11.2016 10:14 3,8 C 94 % 1007,1 hPa 0,0 l/m 2,6 km/h (1 Bft) W 259 0 min 0,000 mm 0,0 UV-I 116 W/m 2,9 C 3,8 C 4,8 km/h (1 Bft) 100,00 %
07.11.2016 10:16 3,8 C 94 % 1007,0 hPa 0,0 l/m 3,7 km/h (1 Bft) W-SW 244 0 min 0,000 mm 0,0 UV-I 126 W/m 2,9 C 3,8 C 6,4 km/h (2 Bft) 95,74 %
07.11.2016 10:18 3,8 C 94 % 1007,0 hPa 0,0 l/m 2,4 km/h (1 Bft) W-SW 244 0 min 0,000 mm 0,0 UV-I 137 W/m 2,9 C 3,8 C 4,8 km/h (1 Bft) 100,00 %
07.11.2016 10:20 3,8 C 94 % 1007,1 hPa 0,0 l/m 4,4 km/h (1 Bft) W-SW 240 0 min 0,000 mm 0,0 UV-I 141 W/m 2,9 C 3,8 C 6,4 km/h (2 Bft) 100,00 %
07.11.2016 10:22 3,8 C 94 % 1007,1 hPa 0,0 l/m 4,7 km/h (1 Bft) W-SW 243 0 min 0,000 mm 0,0 UV-I 138 W/m 2,9 C 3,8 C 8,0 km/h (2 Bft) 98,00 %
07.11.2016 10:24 3,8 C 94 % 1007,0 hPa 0,0 l/m 4,9 km/h (1 Bft) W-SW 254 0 min 0,000 mm 0,0 UV-I 138 W/m 2,9 C 3,8 C 6,4 km/h (2 Bft) 97,87 %
07.11.2016 10:26 3,8 C 94 % 1007,0 hPa 0,0 l/m 4,3 km/h (1 Bft) SW 236 0 min 0,000 mm 0,0 UV-I 143 W/m 2,9 C 3,8 C 6,4 km/h (2 Bft) 100,00 %
07.11.2016 10:28 3,8 C 94 % 1007,0 hPa 0,0 l/m 2,5 km/h (1 Bft) SW 236 0 min 0,000 mm 0,2 UV-I 153 W/m 2,9 C 3,8 C 4,8 km/h (1 Bft) 97,37 %
07.11.2016 10:30 3,8 C 94 % 1007,0 hPa 0,0 l/m 4,2 km/h (1 Bft) SW 236 0 min 0,000 mm 0,5 UV-I 165 W/m 2,9 C 3,8 C 6,4 km/h (2 Bft) 100,00 %
07.11.2016 10:32 3,9 C 94 % 1007,0 hPa 0,0 l/m 3,4 km/h (1 Bft) SW 236 0 min 0,000 mm 0,5 UV-I 166 W/m 3,0 C 3,9 C 4,8 km/h (1 Bft) 100,00 %
07.11.2016 10:34 4,1 C 94 % 1007,0 hPa 0,0 l/m 2,1 km/h (1 Bft) SW 236 0 min 0,000 mm 0,4 UV-I 161 W/m 3,2 C 4,1 C 3,2 km/h (1 Bft) 100,00 %
07.11.2016 10:36 4,1 C 94 % 1007,0 hPa 0,0 l/m 4,3 km/h (1 Bft) W 277 0 min 0,000 mm 0,0 UV-I 160 W/m 3,2 C 4,1 C 8,0 km/h (2 Bft) 100,00 %
07.11.2016 10:38 4,1 C 93 % 1007,0 hPa 0,0 l/m 6,0 km/h (2 Bft) W 279 0 min 0,000 mm 0,0 UV-I 157 W/m 3,1 C 4,1 C 9,7 km/h (2 Bft) 97,87 %
07.11.2016 10:40 4,1 C 94 % 1007,0 hPa 0,0 l/m 5,5 km/h (1 Bft) W 263 0 min 0,000 mm 0,0 UV-I 151 W/m 3,2 C 4,1 C 8,0 km/h (2 Bft) 100,00 %
07.11.2016 10:42 4,1 C 93 % 1007,1 hPa 0,0 l/m 4,2 km/h (1 Bft) W 267 0 min 0,000 mm 0,0 UV-I 142 W/m 3,1 C 4,1 C 9,7 km/h (2 Bft) 96,23 %
07.11.2016 10:44 4,1 C 93 % 1007,0 hPa 0,0 l/m 4,9 km/h (1 Bft) W 274 0 min 0,000 mm 0,0 UV-I 134 W/m 3,1 C 4,1 C 9,7 km/h (2 Bft) 96,00 %
07.11.2016 10:46 4,1 C 93 % 1007,1 hPa 0,0 l/m 4,9 km/h (1 Bft) W 259 0 min 0,000 mm 0,0 UV-I 131 W/m 3,1 C 4,1 C 9,7 km/h (2 Bft) 97,37 %
07.11.2016 10:48 4,0 C 92 % 1007,1 hPa 0,0 l/m 6,5 km/h (2 Bft) W-SW 255 0 min 0,000 mm 0,0 UV-I 132 W/m 2,8 C 3,9 C 11,3 km/h (2 Bft) 95,74 %
07.11.2016 10:50 4,0 C 93 % 1007,1 hPa 0,0 l/m 3,6 km/h (1 Bft) W-SW 255 0 min 0,000 mm 0,0 UV-I 138 W/m 3,0 C 4,0 C 4,8 km/h (1 Bft) 97,87 %
07.11.2016 10:52 4,1 C 93 % 1007,2 hPa 0,0 l/m 3,9 km/h (1 Bft) W-SW 257 0 min 0,000 mm 0,0 UV-I 140 W/m 3,1 C 4,1 C 8,0 km/h (2 Bft) 97,14 %
07.11.2016 10:54 4,2 C 94 % 1007,2 hPa 0,0 l/m 4,1 km/h (1 Bft) W-SW 254 0 min 0,000 mm 0,0 UV-I 143 W/m 3,3 C 4,2 C 6,4 km/h (2 Bft) 98,53 %
07.11.2016 10:56 4,1 C 94 % 1007,2 hPa 0,0 l/m 4,4 km/h (1 Bft) SW 226 0 min 0,000 mm 0,2 UV-I 147 W/m 3,2 C 4,1 C 6,4 km/h (2 Bft) 94,74 %
07.11.2016 10:58 4,1 C 93 % 1007,2 hPa 0,0 l/m 6,3 km/h (2 Bft) W-NW 287 0 min 0,000 mm 0,5 UV-I 150 W/m 3,1 C 4,1 C 11,3 km/h (2 Bft) 97,87 %
07.11.2016 11:00 4,1 C 93 % 1007,2 hPa 0,0 l/m 4,8 km/h (1 Bft) W 261 0 min 0,051 mm 0,3 UV-I 150 W/m 3,1 C 4,1 C 8,0 km/h (2 Bft) 94,64 %
07.11.2016 11:02 4,1 C 93 % 1007,2 hPa 0,0 l/m 3,0 km/h (1 Bft) W 260 0 min 0,000 mm 0,0 UV-I 148 W/m 3,1 C 4,1 C 4,8 km/h (1 Bft) 97,37 %
07.11.2016 11:04 4,2 C 93 % 1007,2 hPa 0,0 l/m 5,7 km/h (1 Bft) W 266 0 min 0,000 mm 0,0 UV-I 148 W/m 3,2 C 4,2 C 11,3 km/h (2 Bft) 97,87 %
07.11.2016 11:06 4,2 C 92 % 1007,2 hPa 0,0 l/m 5,0 km/h (1 Bft) W-SW 250 0 min 0,000 mm 0,0 UV-I 146 W/m 3,0 C 4,2 C 9,7 km/h (2 Bft) 97,87 %
07.11.2016 11:08 4,2 C 92 % 1007,2 hPa 0,0 l/m 3,0 km/h (1 Bft) W-SW 252 0 min 0,000 mm 0,0 UV-I 147 W/m 3,0 C 4,2 C 6,4 km/h (2 Bft) 97,87 %
07.11.2016 11:10 4,2 C 93 % 1007,3 hPa 0,0 l/m 4,9 km/h (1 Bft) W-SW 248 0 min 0,000 mm 0,5 UV-I 154 W/m 3,2 C 4,2 C 11,3 km/h (2 Bft) 98,21 %
07.11.2016 11:12 4,2 C 92 % 1007,2 hPa 0,0 l/m 6,1 km/h (2 Bft) W 266 0 min 0,000 mm 0,5 UV-I 156 W/m 3,0 C 4,2 C 11,3 km/h (2 Bft) 97,44 %
07.11.2016 11:14 4,2 C 92 % 1007,2 hPa 0,0 l/m 6,1 km/h (2 Bft) W-SW 257 0 min 0,000 mm 0,5 UV-I 152 W/m 3,0 C 4,2 C 9,7 km/h (2 Bft) 98,08 %
07.11.2016 11:16 4,2 C 91 % 1007,2 hPa 0,0 l/m 4,7 km/h (1 Bft) W-SW 257 0 min 0,000 mm 0,5 UV-I 148 W/m 2,9 C 4,2 C 6,4 km/h (2 Bft) 97,87 %
07.11.2016 11:18 4,3 C 92 % 1007,2 hPa 0,0 l/m 5,2 km/h (1 Bft) W 273 0 min 0,000 mm 0,5 UV-I 148 W/m 3,1 C 4,3 C 9,7 km/h (2 Bft) 100,00 %
07.11.2016 11:20 4,3 C 91 % 1007,2 hPa 0,0 l/m 3,1 km/h (1 Bft) W-SW 257 0 min 0,000 mm 0,5 UV-I 144 W/m 3,0 C 4,3 C 9,7 km/h (2 Bft) 100,00 %
07.11.2016 11:22 4,3 C 92 % 1007,2 hPa 0,0 l/m 5,9 km/h (2 Bft) W-SW 254 0 min 0,000 mm 0,5 UV-I 139 W/m 3,1 C 4,3 C 12,9 km/h (3 Bft) 100,00 %
07.11.2016 11:24 4,3 C 91 % 1007,2 hPa 0,0 l/m 2,5 km/h (1 Bft) W 263 0 min 0,000 mm 0,3 UV-I 140 W/m 3,0 C 4,3 C 4,8 km/h (1 Bft) 97,37 %
07.11.2016 11:26 4,3 C 92 % 1007,2 hPa 0,0 l/m 6,0 km/h (2 Bft) W-SW 246 0 min 0,000 mm 0,5 UV-I 148 W/m 3,1 C 4,3 C 12,9 km/h (3 Bft) 100,00 %
07.11.2016 11:28 4,3 C 90 % 1007,2 hPa 0,0 l/m 5,4 km/h (1 Bft) W 270 0 min 0,000 mm 0,5 UV-I 158 W/m 2,8 C 4,3 C 11,3 km/h (2 Bft) 98,11 %
07.11.2016 11:30 4,3 C 91 % 1007,2 hPa 0,0 l/m 4,4 km/h (1 Bft) W-SW 254 0 min 0,000 mm 0,5 UV-I 171 W/m 3,0 C 4,3 C 6,4 km/h (2 Bft) 100,00 %
07.11.2016 11:32 4,4 C 91 % 1007,1 hPa 0,0 l/m 3,4 km/h (1 Bft) W-SW 248 0 min 0,000 mm 0,3 UV-I 168 W/m 3,1 C 4,4 C 6,4 km/h (2 Bft) 97,87 %
07.11.2016 11:34 4,4 C 91 % 1007,1 hPa 0,0 l/m 6,0 km/h (2 Bft) W-SW 248 0 min 0,000 mm 0,1 UV-I 161 W/m 3,1 C 4,4 C 11,3 km/h (2 Bft) 96,30 %
07.11.2016 11:36 4,4 C 90 % 1007,1 hPa 0,0 l/m 5,9 km/h (2 Bft) W 281 0 min 0,000 mm 0,5 UV-I 165 W/m 2,9 C 4,4 C 12,9 km/h (3 Bft) 97,73 %
07.11.2016 11:38 4,4 C 91 % 1007,1 hPa 0,0 l/m 4,2 km/h (1 Bft) W-NW 285 0 min 0,000 mm 0,5 UV-I 171 W/m 3,1 C 4,4 C 9,7 km/h (2 Bft) 98,00 %
07.11.2016 11:40 4,4 C 91 % 1007,2 hPa 0,0 l/m 3,4 km/h (1 Bft) W 273 0 min 0,000 mm 0,5 UV-I 166 W/m 3,1 C 4,4 C 4,8 km/h (1 Bft) 97,87 %
07.11.2016 11:42 4,5 C 92 % 1007,2 hPa 0,0 l/m 4,2 km/h (1 Bft) W-SW 250 0 min 0,000 mm 0,5 UV-I 172 W/m 3,3 C 4,5 C 8,0 km/h (2 Bft) 100,00 %
07.11.2016 11:44 4,6 C 92 % 1007,3 hPa 0,0 l/m 5,2 km/h (1 Bft) W-SW 256 0 min 0,000 mm 0,6 UV-I 196 W/m 3,4 C 4,6 C 9,7 km/h (2 Bft) 97,56 %
07.11.2016 11:46 4,6 C 91 % 1007,2 hPa 0,0 l/m 2,0 km/h (1 Bft) W 261 0 min 0,000 mm 0,6 UV-I 214 W/m 3,3 C 4,6 C 4,8 km/h (1 Bft) 100,00 %
07.11.2016 11:48 4,6 C 92 % 1007,2 hPa 0,0 l/m 1,6 km/h (1 Bft) W 265 0 min 0,000 mm 0,6 UV-I 219 W/m 3,4 C 4,6 C 3,2 km/h (1 Bft) 100,00 %
07.11.2016 11:50 4,7 C 92 % 1007,1 hPa 0,0 l/m 2,0 km/h (1 Bft) W 269 0 min 0,000 mm 0,6 UV-I 225 W/m 3,5 C 4,7 C 3,2 km/h (1 Bft) 100,00 %
07.11.2016 11:52 4,6 C 91 % 1007,2 hPa 0,0 l/m 3,5 km/h (1 Bft) W-NW 284 0 min 0,000 mm 0,6 UV-I 223 W/m 3,3 C 4,6 C 6,4 km/h (2 Bft) 100,00 %
07.11.2016 11:54 4,7 C 91 % 1007,2 hPa 0,0 l/m 3,1 km/h (1 Bft) SW 223 0 min 0,000 mm 0,6 UV-I 215 W/m 3,4 C 4,7 C 6,4 km/h (2 Bft) 97,56 %
07.11.2016 11:56 4,7 C 91 % 1007,3 hPa 0,0 l/m 2,9 km/h (1 Bft) W-NW 302 0 min 0,000 mm 0,6 UV-I 208 W/m 3,4 C 4,7 C 4,8 km/h (1 Bft) 98,04 %
07.11.2016 11:58 4,7 C 90 % 1007,3 hPa 0,0 l/m 2,6 km/h (1 Bft) NW 315 0 min 0,000 mm 0,6 UV-I 190 W/m 3,2 C 4,7 C 4,8 km/h (1 Bft) 100,00 %
07.11.2016 12:00 4,7 C 90 % 1007,2 hPa 0,0 l/m 4,4 km/h (1 Bft) W 267 0 min 0,076 mm 0,6 UV-I 170 W/m 3,2 C 4,7 C 6,4 km/h (2 Bft) 100,00 %
07.11.2016 12:02 4,7 C 90 % 1007,2 hPa 0,0 l/m 4,9 km/h (1 Bft) W 269 0 min 0,000 mm 0,6 UV-I 161 W/m 3,2 C 4,7 C 6,4 km/h (2 Bft) 100,00 %
07.11.2016 12:04 4,6 C 90 % 1007,3 hPa 0,0 l/m 2,7 km/h (1 Bft) W-NW 293 0 min 0,000 mm 0,5 UV-I 160 W/m 3,1 C 4,6 C 4,8 km/h (1 Bft) 100,00 %
07.11.2016 12:06 4,7 C 91 % 1007,3 hPa 0,0 l/m 1,7 km/h (1 Bft) W-NW 292 0 min 0,000 mm 0,6 UV-I 160 W/m 3,4 C 4,7 C 3,2 km/h (1 Bft) 100,00 %
07.11.2016 12:08 4,7 C 91 % 1007,4 hPa 0,0 l/m 4,2 km/h (1 Bft) W-SW 249 0 min 0,000 mm 0,5 UV-I 153 W/m 3,4 C 4,7 C 9,7 km/h (2 Bft) 100,00 %
07.11.2016 12:10 4,7 C 89 % 1007,5 hPa 0,0 l/m 3,3 km/h (1 Bft) W 265 0 min 0,000 mm 0,5 UV-I 147 W/m 3,0 C 4,7 C 6,4 km/h (2 Bft) 100,00 %
07.11.2016 12:12 4,7 C 90 % 1007,5 hPa 0,0 l/m 3,8 km/h (1 Bft) SW 233 0 min 0,000 mm 0,5 UV-I 142 W/m 3,2 C 4,7 C 6,4 km/h (2 Bft) 98,11 %
07.11.2016 12:14 4,7 C 89 % 1007,4 hPa 0,0 l/m 5,3 km/h (1 Bft) SW 232 0 min 0,000 mm 0,0 UV-I 129 W/m 3,0 C 4,7 C 11,3 km/h (2 Bft) 97,73 %
07.11.2016 12:16 4,7 C 89 % 1007,5 hPa 0,0 l/m 5,0 km/h (1 Bft) W-SW 241 0 min 0,000 mm 0,0 UV-I 124 W/m 3,0 C 4,7 C 8,0 km/h (2 Bft) 100,00 %
07.11.2016 12:18 4,7 C 89 % 1007,4 hPa 0,0 l/m 5,8 km/h (2 Bft) W 281 0 min 0,000 mm 0,0 UV-I 119 W/m 3,0 C 4,7 C 9,7 km/h (2 Bft) 95,74 %
07.11.2016 12:20 4,6 C 89 % 1007,5 hPa 0,0 l/m 6,0 km/h (2 Bft) W 269 0 min 0,000 mm 0,0 UV-I 115 W/m 2,9 C 4,6 C 14,5 km/h (3 Bft) 100,00 %
07.11.2016 12:22 4,6 C 89 % 1007,5 hPa 0,0 l/m 5,5 km/h (1 Bft) W-NW 291 0 min 0,000 mm 0,0 UV-I 118 W/m 2,9 C 4,6 C 12,9 km/h (3 Bft) 100,00 %
07.11.2016 12:24 4,6 C 89 % 1007,6 hPa 0,0 l/m 3,8 km/h (1 Bft) W-NW 285 0 min 0,000 mm 0,0 UV-I 121 W/m 2,9 C 4,6 C 8,0 km/h (2 Bft) 100,00 %
07.11.2016 12:26 4,6 C 89 % 1007,6 hPa 0,0 l/m 3,4 km/h (1 Bft) W-NW 284 0 min 0,000 mm 0,0 UV-I 121 W/m 2,9 C 4,6 C 4,8 km/h (1 Bft) 100,00 %
07.11.2016 12:28 4,5 C 89 % 1007,6 hPa 0,0 l/m 5,1 km/h (1 Bft) W-SW 250 0 min 0,000 mm 0,0 UV-I 115 W/m 2,8 C 4,5 C 9,7 km/h (2 Bft) 100,00 %
07.11.2016 12:30 4,5 C 89 % 1007,6 hPa 0,0 l/m 4,1 km/h (1 Bft) W 275 0 min 0,000 mm 0,0 UV-I 111 W/m 2,8 C 4,5 C 6,4 km/h (2 Bft) 100,00 %
07.11.2016 12:32 4,6 C 90 % 1007,6 hPa 0,0 l/m 1,7 km/h (1 Bft) W 273 0 min 0,000 mm 0,0 UV-I 110 W/m 3,1 C 4,6 C 3,2 km/h (1 Bft) 100,00 %
07.11.2016 12:34 4,6 C 90 % 1007,6 hPa 0,0 l/m 5,6 km/h (1 Bft) W 262 0 min 0,000 mm 0,0 UV-I 108 W/m 3,1 C 4,6 C 12,9 km/h (3 Bft) 100,00 %
07.11.2016 12:36 4,5 C 89 % 1007,6 hPa 0,0 l/m 5,0 km/h (1 Bft) W 273 0 min 0,000 mm 0,0 UV-I 107 W/m 2,8 C 4,5 C 11,3 km/h (2 Bft) 100,00 %
07.11.2016 12:38 4,5 C 90 % 1007,6 hPa 0,0 l/m 3,0 km/h (1 Bft) W-NW 298 0 min 0,000 mm 0,0 UV-I 107 W/m 3,0 C 4,5 C 6,4 km/h (2 Bft) 98,11 %
07.11.2016 12:40 4,5 C 90 % 1007,6 hPa 0,0 l/m 5,0 km/h (1 Bft) W 273 0 min 0,000 mm 0,0 UV-I 114 W/m 3,0 C 4,5 C 11,3 km/h (2 Bft) 98,00 %
07.11.2016 12:42 4,6 C 90 % 1007,6 hPa 0,0 l/m 7,3 km/h (2 Bft) W 260 0 min 0,000 mm 0,0 UV-I 119 W/m 3,1 C 3,8 C 12,9 km/h (3 Bft) 100,00 %
07.11.2016 12:44 4,5 C 90 % 1007,6 hPa 0,0 l/m 5,1 km/h (1 Bft) W-NW 300 0 min 0,000 mm 0,0 UV-I 116 W/m 3,0 C 4,5 C 12,9 km/h (3 Bft) 97,73 %
07.11.2016 12:46 4,5 C 90 % 1007,6 hPa 0,0 l/m 3,8 km/h (1 Bft) W 267 0 min 0,000 mm 0,0 UV-I 105 W/m 3,0 C 4,5 C 6,4 km/h (2 Bft) 98,00 %
07.11.2016 12:48 4,5 C 89 % 1007,7 hPa 0,0 l/m 2,7 km/h (1 Bft) W-SW 247 0 min 0,000 mm 0,0 UV-I 102 W/m 2,8 C 4,5 C 4,8 km/h (1 Bft) 98,00 %
07.11.2016 12:50 4,5 C 89 % 1007,7 hPa 0,0 l/m 3,8 km/h (1 Bft) W-SW 252 0 min 0,000 mm 0,0 UV-I 97 W/m 2,8 C 4,5 C 6,4 km/h (2 Bft) 97,14 %
07.11.2016 12:52 4,5 C 90 % 1007,7 hPa 0,0 l/m 2,7 km/h (1 Bft) W-SW 244 0 min 0,000 mm 0,0 UV-I 98 W/m 3,0 C 4,5 C 6,4 km/h (2 Bft) 98,00 %
07.11.2016 12:54 4,4 C 90 % 1007,8 hPa 0,0 l/m 3,5 km/h (1 Bft) W-NW 288 0 min 0,000 mm 0,0 UV-I 101 W/m 2,9 C 4,4 C 6,4 km/h (2 Bft) 98,11 %
07.11.2016 12:56 4,4 C 90 % 1007,8 hPa 0,0 l/m 3,9 km/h (1 Bft) W-SW 254 0 min 0,000 mm 0,0 UV-I 101 W/m 2,9 C 4,4 C 11,3 km/h (2 Bft) 95,12 %
07.11.2016 12:58 4,4 C 90 % 1007,8 hPa 0,0 l/m 5,1 km/h (1 Bft) W 276 0 min 0,000 mm 0,0 UV-I 100 W/m 2,9 C 4,4 C 11,3 km/h (2 Bft) 96,23 %
07.11.2016 13:00 4,4 C 90 % 1007,8 hPa 0,0 l/m 1,9 km/h (1 Bft) W-NW 290 0 min 0,000 mm 0,0 UV-I 104 W/m 2,9 C 4,4 C 8,0 km/h (2 Bft) 97,37 %
07.11.2016 13:02 4,4 C 90 % 1007,8 hPa 0,0 l/m 4,0 km/h (1 Bft) NW 313 0 min 0,051 mm 0,0 UV-I 111 W/m 2,9 C 4,4 C 9,7 km/h (2 Bft) 96,00 %
07.11.2016 13:04 4,4 C 90 % 1007,8 hPa 0,0 l/m 4,0 km/h (1 Bft) W 259 0 min 0,000 mm 0,0 UV-I 120 W/m 2,9 C 4,4 C 11,3 km/h (2 Bft) 98,00 %
07.11.2016 13:06 4,4 C 89 % 1007,8 hPa 0,0 l/m 4,4 km/h (1 Bft) SW 232 0 min 0,000 mm 0,0 UV-I 126 W/m 2,7 C 4,4 C 9,7 km/h (2 Bft) 96,23 %
07.11.2016 13:08 4,4 C 90 % 1007,8 hPa 0,0 l/m 3,3 km/h (1 Bft) W 270 0 min 0,000 mm 0,0 UV-I 122 W/m 2,9 C 4,4 C 6,4 km/h (2 Bft) 97,37 %
07.11.2016 13:10 4,4 C 90 % 1007,9 hPa 0,0 l/m 2,5 km/h (1 Bft) W 261 0 min 0,000 mm 0,0 UV-I 111 W/m 2,9 C 4,4 C 4,8 km/h (1 Bft) 98,00 %
07.11.2016 13:12 4,4 C 90 % 1007,8 hPa 0,0 l/m 4,8 km/h (1 Bft) W-SW 253 0 min 0,000 mm 0,0 UV-I 103 W/m 2,9 C 4,4 C 6,4 km/h (2 Bft) 97,62 %
07.11.2016 13:14 4,4 C 90 % 1007,8 hPa 0,0 l/m 4,9 km/h (1 Bft) W 265 0 min 0,000 mm 0,0 UV-I 103 W/m 2,9 C 4,4 C 12,9 km/h (3 Bft) 98,00 %
07.11.2016 13:16 4,4 C 89 % 1007,8 hPa 0,0 l/m 6,3 km/h (2 Bft) W 262 0 min 0,000 mm 0,0 UV-I 109 W/m 2,7 C 4,4 C 11,3 km/h (2 Bft) 96,00 %
07.11.2016 13:18 4,4 C 88 % 1007,8 hPa 0,0 l/m 8,3 km/h (2 Bft) W-SW 253 0 min 0,000 mm 0,0 UV-I 117 W/m 2,6 C 2,7 C 14,5 km/h (3 Bft) 97,14 %
07.11.2016 13:20 4,4 C 88 % 1007,8 hPa 0,0 l/m 6,3 km/h (2 Bft) W 274 0 min 0,000 mm 0,0 UV-I 127 W/m 2,6 C 4,4 C 8,0 km/h (2 Bft) 96,43 %
07.11.2016 13:22 4,4 C 88 % 1007,8 hPa 0,0 l/m 6,8 km/h (2 Bft) W 263 0 min 0,000 mm 0,0 UV-I 131 W/m 2,6 C 4,1 C 11,3 km/h (2 Bft) 100,00 %
07.11.2016 13:24 4,4 C 88 % 1007,8 hPa 0,0 l/m 6,4 km/h (2 Bft) W-SW 246 0 min 0,000 mm 0,0 UV-I 128 W/m 2,6 C 4,4 C 11,3 km/h (2 Bft) 98,21 %
07.11.2016 13:26 4,4 C 89 % 1007,8 hPa 0,0 l/m 5,8 km/h (2 Bft) W 260 0 min 0,000 mm 0,0 UV-I 120 W/m 2,7 C 4,4 C 9,7 km/h (2 Bft) 95,45 %
07.11.2016 13:28 4,4 C 88 % 1007,8 hPa 0,0 l/m 8,3 km/h (2 Bft) W 277 0 min 0,000 mm 0,0 UV-I 114 W/m 2,6 C 2,7 C 12,9 km/h (3 Bft) 100,00 %
07.11.2016 13:30 4,3 C 89 % 1007,8 hPa 0,0 l/m 10,4 km/h (2 Bft) W-NW 283 0 min 0,000 mm 0,0 UV-I 116 W/m 2,7 C 1,0 C 16,1 km/h (3 Bft) 97,87 %
07.11.2016 13:32 4,3 C 88 % 1007,8 hPa 0,0 l/m 5,7 km/h (1 Bft) W 262 0 min 0,000 mm 0,0 UV-I 121 W/m 2,5 C 4,3 C 9,7 km/h (2 Bft) 97,87 %
07.11.2016 13:34 4,3 C 89 % 1007,8 hPa 0,0 l/m 3,7 km/h (1 Bft) W-NW 286 0 min 0,000 mm 0,0 UV-I 121 W/m 2,7 C 4,3 C 6,4 km/h (2 Bft) 100,00 %
07.11.2016 13:36 4,3 C 90 % 1007,9 hPa 0,0 l/m 3,9 km/h (1 Bft) W-NW 299 0 min 0,000 mm 0,0 UV-I 119 W/m 2,8 C 4,3 C 6,4 km/h (2 Bft) 100,00 %
07.11.2016 13:38 4,3 C 90 % 1007,9 hPa 0,0 l/m 2,0 km/h (1 Bft) W-NW 289 0 min 0,000 mm 0,0 UV-I 107 W/m 2,8 C 4,3 C 3,2 km/h (1 Bft) 97,73 %
07.11.2016 13:40 4,3 C 90 % 1007,9 hPa 0,0 l/m 2,1 km/h (1 Bft) NW 307 0 min 0,000 mm 0,0 UV-I 83 W/m 2,8 C 4,3 C 4,8 km/h (1 Bft) 100,00 %
07.11.2016 13:42 4,3 C 90 % 1007,9 hPa 0,0 l/m 3,1 km/h (1 Bft) W 274 0 min 0,000 mm 0,0 UV-I 69 W/m 2,8 C 4,3 C 6,4 km/h (2 Bft) 100,00 %
07.11.2016 13:44 4,2 C 90 % 1007,9 hPa 0,0 l/m 5,3 km/h (1 Bft) W 259 0 min 0,000 mm 0,0 UV-I 69 W/m 2,7 C 4,2 C 11,3 km/h (2 Bft) 100,00 %
07.11.2016 13:46 4,2 C 90 % 1007,9 hPa 0,0 l/m 2,8 km/h (1 Bft) W-SW 253 0 min 0,000 mm 0,0 UV-I 63 W/m 2,7 C 4,2 C 6,4 km/h (2 Bft) 100,00 %
07.11.2016 13:48 4,2 C 91 % 1008,0 hPa 0,0 l/m 2,4 km/h (1 Bft) W-NW 300 0 min 0,000 mm 0,0 UV-I 72 W/m 2,9 C 4,2 C 6,4 km/h (2 Bft) 100,00 %
07.11.2016 13:50 4,1 C 91 % 1008,0 hPa 0,0 l/m 6,4 km/h (2 Bft) W-NW 299 0 min 0,000 mm 0,0 UV-I 89 W/m 2,8 C 4,1 C 16,1 km/h (3 Bft) 100,00 %
07.11.2016 13:52 3,9 C 90 % 1008,1 hPa 0,0 l/m 4,6 km/h (1 Bft) O 99 0 min 0,000 mm 0,0 UV-I 97 W/m 2,4 C 3,9 C 8,0 km/h (2 Bft) 100,00 %
07.11.2016 13:54 3,9 C 89 % 1008,1 hPa 0,0 l/m 6,2 km/h (2 Bft) W-NW 296 0 min 0,000 mm 0,0 UV-I 92 W/m 2,3 C 3,9 C 12,9 km/h (3 Bft) 100,00 %
07.11.2016 13:56 3,8 C 88 % 1008,1 hPa 0,0 l/m 5,2 km/h (1 Bft) W 271 0 min 0,000 mm 0,0 UV-I 85 W/m 2,0 C 3,8 C 9,7 km/h (2 Bft) 100,00 %
07.11.2016 13:58 3,8 C 89 % 1008,1 hPa 0,0 l/m 4,6 km/h (1 Bft) W-NW 290 0 min 0,000 mm 0,0 UV-I 76 W/m 2,2 C 3,8 C 9,7 km/h (2 Bft) 100,00 %
07.11.2016 14:00 3,7 C 89 % 1008,2 hPa 0,0 l/m 4,1 km/h (1 Bft) W 267 0 min 0,000 mm 0,0 UV-I 72 W/m 2,1 C 3,7 C 9,7 km/h (2 Bft) 100,00 %
07.11.2016 14:02 3,7 C 89 % 1008,2 hPa 0,0 l/m 3,3 km/h (1 Bft) W 261 0 min 0,051 mm 0,0 UV-I 70 W/m 2,1 C 3,7 C 4,8 km/h (1 Bft) 100,00 %
07.11.2016 14:04 3,6 C 89 % 1008,3 hPa 0,0 l/m 7,3 km/h (2 Bft) W-SW 255 0 min 0,000 mm 0,0 UV-I 72 W/m 2,0 C 2,8 C 14,5 km/h (3 Bft) 96,00 %
07.11.2016 14:06 3,6 C 89 % 1008,2 hPa 0,0 l/m 9,0 km/h (2 Bft) W-SW 248 0 min 0,000 mm 0,0 UV-I 76 W/m 2,0 C 1,3 C 12,9 km/h (3 Bft) 100,00 %
07.11.2016 14:08 3,6 C 89 % 1008,2 hPa 0,0 l/m 7,7 km/h (2 Bft) SW 228 0 min 0,000 mm 0,0 UV-I 80 W/m 2,0 C 2,4 C 12,9 km/h (3 Bft) 100,00 %
07.11.2016 14:10 3,6 C 88 % 1008,2 hPa 0,0 l/m 6,8 km/h (2 Bft) W 279 0 min 0,000 mm 0,0 UV-I 78 W/m 1,8 C 3,2 C 12,9 km/h (3 Bft) 100,00 %
07.11.2016 14:12 3,6 C 88 % 1008,3 hPa 0,0 l/m 4,3 km/h (1 Bft) W-SW 252 0 min 0,000 mm 0,0 UV-I 69 W/m 1,8 C 3,6 C 8,0 km/h (2 Bft) 100,00 %
07.11.2016 14:14 3,6 C 88 % 1008,4 hPa 0,0 l/m 7,5 km/h (2 Bft) W-NW 303 0 min 0,000 mm 0,0 UV-I 60 W/m 1,8 C 2,6 C 14,5 km/h (3 Bft) 100,00 %
07.11.2016 14:16 3,6 C 87 % 1008,3 hPa 0,0 l/m 6,1 km/h (2 Bft) W-NW 284 0 min 0,000 mm 0,0 UV-I 58 W/m 1,6 C 3,6 C 12,9 km/h (3 Bft) 100,00 %
07.11.2016 14:18 3,6 C 88 % 1008,4 hPa 0,0 l/m 4,9 km/h (1 Bft) W-SW 254 0 min 0,000 mm 0,0 UV-I 56 W/m 1,8 C 3,6 C 11,3 km/h (2 Bft) 97,14 %
07.11.2016 14:20 3,6 C 88 % 1008,4 hPa 0,0 l/m 7,3 km/h (2 Bft) W 261 0 min 0,000 mm 0,0 UV-I 53 W/m 1,8 C 2,8 C 14,5 km/h (3 Bft) 100,00 %
07.11.2016 14:22 3,6 C 88 % 1008,4 hPa 0,0 l/m 6,4 km/h (2 Bft) W-NW 286 0 min 0,000 mm 0,0 UV-I 56 W/m 1,8 C 3,6 C 11,3 km/h (2 Bft) 100,00 %
07.11.2016 14:24 3,6 C 89 % 1008,4 hPa 0,0 l/m 7,7 km/h (2 Bft) W 263 0 min 0,000 mm 0,0 UV-I 63 W/m 2,0 C 2,4 C 11,3 km/h (2 Bft) 100,00 %
07.11.2016 14:26 3,6 C 89 % 1008,4 hPa 0,0 l/m 5,7 km/h (1 Bft) W-SW 258 0 min 0,000 mm 0,0 UV-I 71 W/m 2,0 C 3,6 C 11,3 km/h (2 Bft) 100,00 %
07.11.2016 14:28 3,6 C 89 % 1008,5 hPa 0,0 l/m 8,1 km/h (2 Bft) W-NW 290 0 min 0,000 mm 0,0 UV-I 76 W/m 2,0 C 2,0 C 20,9 km/h (4 Bft) 97,87 %
07.11.2016 14:30 3,6 C 88 % 1008,5 hPa 0,0 l/m 6,7 km/h (2 Bft) W-SW 258 0 min 0,000 mm 0,0 UV-I 81 W/m 1,8 C 3,3 C 11,3 km/h (2 Bft) 98,00 %
07.11.2016 14:32 3,6 C 89 % 1008,5 hPa 0,0 l/m 6,9 km/h (2 Bft) W-SW 252 0 min 0,000 mm 0,0 UV-I 82 W/m 2,0 C 3,1 C 14,5 km/h (3 Bft) 100,00 %
07.11.2016 14:34 3,6 C 89 % 1008,6 hPa 0,0 l/m 11,6 km/h (2 Bft) W-SW 257 0 min 0,000 mm 0,0 UV-I 81 W/m 2,0 C -0,6 C 16,1 km/h (3 Bft) 98,00 %
07.11.2016 14:36 3,5 C 89 % 1008,6 hPa 0,0 l/m 10,9 km/h (2 Bft) W 261 0 min 0,000 mm 0,0 UV-I 79 W/m 1,9 C -0,2 C 17,7 km/h (3 Bft) 96,23 %
07.11.2016 14:38 3,4 C 89 % 1008,6 hPa 0,0 l/m 7,7 km/h (2 Bft) SW 234 0 min 0,000 mm 0,0 UV-I 75 W/m 1,8 C 2,2 C 12,9 km/h (3 Bft) 95,12 %
07.11.2016 14:40 3,4 C 89 % 1008,7 hPa 0,0 l/m 7,8 km/h (2 Bft) W-SW 254 0 min 0,000 mm 0,0 UV-I 66 W/m 1,8 C 2,1 C 12,9 km/h (3 Bft) 100,00 %
07.11.2016 14:42 3,3 C 90 % 1008,7 hPa 0,0 l/m 5,9 km/h (2 Bft) W-SW 253 0 min 0,000 mm 0,0 UV-I 60 W/m 1,8 C 3,3 C 9,7 km/h (2 Bft) 100,00 %
07.11.2016 14:44 3,3 C 90 % 1008,7 hPa 0,2 l/m 7,0 km/h (2 Bft) W-NW 293 0 min 0,000 mm 0,0 UV-I 57 W/m 1,8 C 2,7 C 11,3 km/h (2 Bft) 100,00 %
07.11.2016 14:46 3,3 C 91 % 1008,8 hPa 0,0 l/m 5,6 km/h (1 Bft) W-SW 252 0 min 0,000 mm 0,0 UV-I 51 W/m 2,0 C 3,3 C 11,3 km/h (2 Bft) 100,00 %
07.11.2016 14:48 3,3 C 91 % 1008,8 hPa 0,0 l/m 8,4 km/h (2 Bft) W-SW 257 0 min 0,000 mm 0,0 UV-I 42 W/m 2,0 C 1,5 C 11,3 km/h (2 Bft) 100,00 %
07.11.2016 14:50 3,2 C 91 % 1008,8 hPa 0,0 l/m 10,0 km/h (2 Bft) W 260 0 min 0,000 mm 0,0 UV-I 36 W/m 1,9 C 0,1 C 16,1 km/h (3 Bft) 97,56 %
07.11.2016 14:52 3,2 C 91 % 1008,8 hPa 0,0 l/m 6,8 km/h (2 Bft) W 263 0 min 0,000 mm 0,0 UV-I 35 W/m 1,9 C 2,8 C 11,3 km/h (2 Bft) 94,00 %
07.11.2016 14:54 3,1 C 92 % 1008,8 hPa 0,0 l/m 10,0 km/h (2 Bft) W 279 0 min 0,000 mm 0,0 UV-I 29 W/m 1,9 C -0,0 C 16,1 km/h (3 Bft) 96,30 %
07.11.2016 14:56 3,0 C 92 % 1008,9 hPa 0,0 l/m 6,6 km/h (2 Bft) NW 306 0 min 0,000 mm 0,0 UV-I 25 W/m 1,8 C 2,8 C 17,7 km/h (3 Bft) 94,74 %
07.11.2016 14:58 2,8 C 92 % 1008,9 hPa 0,0 l/m 4,0 km/h (1 Bft) SW 224 0 min 0,000 mm 0,0 UV-I 28 W/m 1,6 C 2,8 C 9,7 km/h (2 Bft) 94,00 %
07.11.2016 15:00 2,7 C 93 % 1009,0 hPa 0,0 l/m 4,4 km/h (1 Bft) NW 321 0 min 0,025 mm 0,0 UV-I 29 W/m 1,7 C 2,7 C 9,7 km/h (2 Bft) 96,23 %
07.11.2016 15:02 2,6 C 93 % 1009,0 hPa 0,2 l/m 6,7 km/h (2 Bft) W 264 0 min 0,000 mm 0,0 UV-I 29 W/m 1,6 C 2,3 C 12,9 km/h (3 Bft) 97,87 %
07.11.2016 15:04 2,4 C 93 % 1009,1 hPa 0,0 l/m 5,0 km/h (1 Bft) W 273 0 min 0,000 mm 0,0 UV-I 31 W/m 1,4 C 2,4 C 12,9 km/h (3 Bft) 97,37 %
07.11.2016 15:06 2,3 C 94 % 1009,1 hPa 0,0 l/m 5,1 km/h (1 Bft) W 273 0 min 0,000 mm 0,0 UV-I 32 W/m 1,4 C 2,3 C 9,7 km/h (2 Bft) 98,11 %
07.11.2016 15:08 2,3 C 94 % 1009,1 hPa 0,0 l/m 3,9 km/h (1 Bft) W-NW 290 0 min 0,000 mm 0,0 UV-I 41 W/m 1,4 C 2,3 C 8,0 km/h (2 Bft) 96,00 %
07.11.2016 15:10 2,3 C 94 % 1009,1 hPa 0,0 l/m 3,1 km/h (1 Bft) W 277 0 min 0,000 mm 0,0 UV-I 55 W/m 1,4 C 2,3 C 9,7 km/h (2 Bft) 97,56 %
07.11.2016 15:12 2,3 C 95 % 1009,1 hPa 0,0 l/m 6,4 km/h (2 Bft) W 259 0 min 0,000 mm 0,0 UV-I 64 W/m 1,6 C 2,3 C 11,3 km/h (2 Bft) 98,11 %
07.11.2016 15:14 2,3 C 95 % 1009,1 hPa 0,0 l/m 5,7 km/h (1 Bft) W 263 0 min 0,000 mm 0,0 UV-I 70 W/m 1,6 C 2,3 C 9,7 km/h (2 Bft) 97,44 %
07.11.2016 15:16 2,3 C 95 % 1009,1 hPa 0,0 l/m 4,8 km/h (1 Bft) W 278 0 min 0,000 mm 0,0 UV-I 74 W/m 1,6 C 2,3 C 6,4 km/h (2 Bft) 97,87 %
07.11.2016 15:18 2,3 C 95 % 1009,1 hPa 0,0 l/m 5,0 km/h (1 Bft) W-SW 248 0 min 0,000 mm 0,0 UV-I 76 W/m 1,6 C 2,3 C 8,0 km/h (2 Bft) 97,87 %
07.11.2016 15:20 2,3 C 95 % 1009,2 hPa 0,0 l/m 6,5 km/h (2 Bft) W-SW 241 0 min 0,000 mm 0,0 UV-I 75 W/m 1,6 C 2,2 C 12,9 km/h (3 Bft) 95,74 %
07.11.2016 15:22 2,3 C 95 % 1009,2 hPa 0,0 l/m 4,1 km/h (1 Bft) W 259 0 min 0,000 mm 0,0 UV-I 66 W/m 1,6 C 2,3 C 4,8 km/h (1 Bft) 96,30 %
07.11.2016 15:24 2,4 C 95 % 1009,2 hPa 0,0 l/m 4,9 km/h (1 Bft) W 263 0 min 0,000 mm 0,0 UV-I 60 W/m 1,7 C 2,4 C 6,4 km/h (2 Bft) 100,00 %
07.11.2016 15:26 2,4 C 95 % 1009,2 hPa 0,0 l/m 4,9 km/h (1 Bft) W-SW 242 0 min 0,000 mm 0,0 UV-I 53 W/m 1,7 C 2,4 C 9,7 km/h (2 Bft) 96,23 %
07.11.2016 15:28 2,4 C 95 % 1009,2 hPa 0,0 l/m 6,2 km/h (2 Bft) SW 234 0 min 0,000 mm 0,0 UV-I 44 W/m 1,7 C 2,4 C 11,3 km/h (2 Bft) 100,00 %
07.11.2016 15:30 2,4 C 95 % 1009,2 hPa 0,0 l/m 5,1 km/h (1 Bft) SW 223 0 min 0,000 mm 0,0 UV-I 38 W/m 1,7 C 2,4 C 9,7 km/h (2 Bft) 98,00 %
07.11.2016 15:34 2,5 C 95 % 1009,2 hPa 0,0 l/m 5,9 km/h (2 Bft) W-SW 246 0 min 0,000 mm 0,0 UV-I 34 W/m 1,8 C 2,5 C 8,0 km/h (2 Bft) 96,43 %
07.11.2016 15:36 2,5 C 95 % 1009,2 hPa 0,0 l/m 7,1 km/h (2 Bft) W 277 0 min 0,000 mm 0,0 UV-I 35 W/m 1,8 C 1,8 C 12,9 km/h (3 Bft) 100,00 %
07.11.2016 15:38 2,6 C 95 % 1009,2 hPa 0,0 l/m 4,5 km/h (1 Bft) W-SW 244 0 min 0,000 mm 0,0 UV-I 38 W/m 1,9 C 2,6 C 6,4 km/h (2 Bft) 98,11 %
07.11.2016 15:40 2,6 C 95 % 1009,2 hPa 0,0 l/m 6,6 km/h (2 Bft) W-SW 254 0 min 0,000 mm 0,0 UV-I 48 W/m 1,9 C 2,4 C 11,3 km/h (2 Bft) 100,00 %
07.11.2016 15:42 2,6 C 94 % 1009,2 hPa 0,0 l/m 5,8 km/h (2 Bft) W-SW 254 0 min 0,000 mm 0,0 UV-I 63 W/m 1,7 C 2,6 C 11,3 km/h (2 Bft) 98,21 %
07.11.2016 15:44 2,6 C 94 % 1009,2 hPa 0,0 l/m 5,9 km/h (2 Bft) SW 230 2 min 0,000 mm 0,0 UV-I 68 W/m 1,7 C 2,6 C 9,7 km/h (2 Bft) 100,00 %
07.11.2016 15:46 2,7 C 94 % 1009,3 hPa 0,0 l/m 3,8 km/h (1 Bft) W-SW 248 2 min 0,000 mm 0,0 UV-I 65 W/m 1,8 C 2,7 C 8,0 km/h (2 Bft) 100,00 %
07.11.2016 15:48 2,7 C 94 % 1009,3 hPa 0,0 l/m 6,2 km/h (2 Bft) SW 232 2 min 0,000 mm 0,0 UV-I 61 W/m 1,8 C 2,7 C 11,3 km/h (2 Bft) 100,00 %
07.11.2016 15:50 2,7 C 94 % 1009,3 hPa 0,0 l/m 6,9 km/h (2 Bft) W-SW 250 2 min 0,000 mm 0,0 UV-I 57 W/m 1,8 C 2,2 C 11,3 km/h (2 Bft) 96,15 %
07.11.2016 15:52 2,7 C 94 % 1009,3 hPa 0,0 l/m 6,8 km/h (2 Bft) W-SW 241 2 min 0,000 mm 0,0 UV-I 55 W/m 1,8 C 2,3 C 9,7 km/h (2 Bft) 98,53 %
07.11.2016 15:54 2,8 C 94 % 1009,3 hPa 0,0 l/m 7,3 km/h (2 Bft) W-SW 242 2 min 0,000 mm 0,0 UV-I 52 W/m 1,9 C 1,9 C 11,3 km/h (2 Bft) 100,00 %
07.11.2016 15:56 2,8 C 94 % 1009,4 hPa 0,0 l/m 9,2 km/h (2 Bft) W-SW 249 0 min 0,000 mm 0,0 UV-I 47 W/m 1,9 C 0,3 C 14,5 km/h (3 Bft) 100,00 %
07.11.2016 15:58 2,8 C 94 % 1009,4 hPa 0,0 l/m 6,7 km/h (2 Bft) W-SW 240 0 min 0,000 mm 0,0 UV-I 44 W/m 1,9 C 2,5 C 9,7 km/h (2 Bft) 97,14 %
07.11.2016 16:00 2,8 C 94 % 1009,3 hPa 0,0 l/m 4,8 km/h (1 Bft) W-SW 238 0 min 0,026 mm 0,0 UV-I 40 W/m 1,9 C 2,8 C 8,0 km/h (2 Bft) 100,00 %
07.11.2016 16:02 2,8 C 94 % 1009,4 hPa 0,0 l/m 6,6 km/h (2 Bft) S-SW 195 0 min 0,000 mm 0,0 UV-I 35 W/m 1,9 C 2,6 C 12,9 km/h (3 Bft) 98,11 %
07.11.2016 16:04 2,7 C 94 % 1009,4 hPa 0,0 l/m 8,8 km/h (2 Bft) W-SW 244 0 min 0,000 mm 0,0 UV-I 31 W/m 1,8 C 0,5 C 14,5 km/h (3 Bft) 100,00 %
07.11.2016 16:06 2,7 C 94 % 1009,4 hPa 0,0 l/m 10,1 km/h (2 Bft) SW 219 0 min 0,000 mm 0,0 UV-I 29 W/m 1,8 C -0,5 C 14,5 km/h (3 Bft) 100,00 %
07.11.2016 16:08 2,7 C 94 % 1009,4 hPa 0,0 l/m 7,0 km/h (2 Bft) SW 232 0 min 0,000 mm 0,0 UV-I 27 W/m 1,8 C 2,1 C 11,3 km/h (2 Bft) 100,00 %
07.11.2016 16:10 2,7 C 93 % 1009,4 hPa 0,0 l/m 8,0 km/h (2 Bft) W 260 0 min 0,000 mm 0,0 UV-I 24 W/m 1,7 C 1,2 C 12,9 km/h (3 Bft) 100,00 %
07.11.2016 16:12 2,6 C 94 % 1009,4 hPa 0,0 l/m 5,7 km/h (1 Bft) W-SW 240 0 min 0,000 mm 0,0 UV-I 21 W/m 1,7 C 2,6 C 6,4 km/h (2 Bft) 100,00 %
07.11.2016 16:14 2,6 C 94 % 1009,4 hPa 0,0 l/m 5,6 km/h (1 Bft) SW 232 0 min 0,000 mm 0,0 UV-I 21 W/m 1,7 C 2,6 C 9,7 km/h (2 Bft) 97,87 %
07.11.2016 16:16 2,6 C 94 % 1009,4 hPa 0,0 l/m 5,0 km/h (1 Bft) W-SW 242 0 min 0,000 mm 0,0 UV-I 19 W/m 1,7 C 2,6 C 6,4 km/h (2 Bft) 100,00 %
07.11.2016 16:18 2,6 C 94 % 1009,4 hPa 0,0 l/m 4,5 km/h (1 Bft) W-SW 248 2 min 0,000 mm 0,0 UV-I 19 W/m 1,7 C 2,6 C 6,4 km/h (2 Bft) 100,00 %
07.11.2016 16:20 2,5 C 94 % 1009,5 hPa 0,0 l/m 5,5 km/h (1 Bft) S-SW 211 2 min 0,000 mm 0,0 UV-I 18 W/m 1,6 C 2,5 C 9,7 km/h (2 Bft) 100,00 %
07.11.2016 16:22 2,5 C 94 % 1009,4 hPa 0,0 l/m 5,2 km/h (1 Bft) SW 215 2 min 0,000 mm 0,0 UV-I 16 W/m 1,6 C 2,5 C 9,7 km/h (2 Bft) 100,00 %
07.11.2016 16:24 2,4 C 94 % 1009,5 hPa 0,0 l/m 4,8 km/h (1 Bft) SW 217 2 min 0,000 mm 0,0 UV-I 15 W/m 1,5 C 2,4 C 6,4 km/h (2 Bft) 98,00 %
07.11.2016 16:26 2,4 C 94 % 1009,5 hPa 0,0 l/m 5,4 km/h (1 Bft) S-SW 210 0 min 0,000 mm 0,0 UV-I 14 W/m 1,5 C 2,4 C 9,7 km/h (2 Bft) 100,00 %
07.11.2016 16:28 2,4 C 94 % 1009,6 hPa 0,0 l/m 5,3 km/h (1 Bft) S-SW 211 0 min 0,000 mm 0,0 UV-I 12 W/m 1,5 C 2,4 C 6,4 km/h (2 Bft) 98,00 %
07.11.2016 16:30 2,4 C 94 % 1009,7 hPa 0,0 l/m 6,3 km/h (2 Bft) S-SW 213 0 min 0,000 mm 0,0 UV-I 11 W/m 1,5 C 2,4 C 12,9 km/h (3 Bft) 100,00 %
07.11.2016 16:32 2,4 C 94 % 1009,7 hPa 0,0 l/m 6,5 km/h (2 Bft) S-SW 202 0 min 0,000 mm 0,0 UV-I 11 W/m 1,5 C 2,3 C 9,7 km/h (2 Bft) 100,00 %
07.11.2016 16:34 2,4 C 94 % 1009,7 hPa 0,0 l/m 8,3 km/h (2 Bft) S-SW 205 0 min 0,000 mm 0,0 UV-I 9 W/m 1,5 C 0,6 C 12,9 km/h (3 Bft) 98,00 %
07.11.2016 16:36 2,4 C 94 % 1009,7 hPa 0,0 l/m 6,1 km/h (2 Bft) S-SW 212 0 min 0,000 mm 0,0 UV-I 8 W/m 1,5 C 2,4 C 11,3 km/h (2 Bft) 100,00 %
07.11.2016 16:38 2,4 C 94 % 1009,6 hPa 0,0 l/m 4,9 km/h (1 Bft) S-SW 209 0 min 0,000 mm 0,0 UV-I 7 W/m 1,5 C 2,4 C 8,0 km/h (2 Bft) 100,00 %
07.11.2016 16:40 2,4 C 95 % 1009,7 hPa 0,0 l/m 5,0 km/h (1 Bft) S-SW 211 0 min 0,000 mm 0,0 UV-I 6 W/m 1,7 C 2,4 C 8,0 km/h (2 Bft) 100,00 %
07.11.2016 16:42 2,4 C 95 % 1009,7 hPa 0,0 l/m 5,6 km/h (1 Bft) S 184 0 min 0,000 mm 0,0 UV-I 5 W/m 1,7 C 2,4 C 8,0 km/h (2 Bft) 100,00 %
07.11.2016 16:44 2,3 C 95 % 1009,8 hPa 0,0 l/m 4,3 km/h (1 Bft) SW 232 0 min 0,000 mm 0,0 UV-I 5 W/m 1,6 C 2,3 C 6,4 km/h (2 Bft) 100,00 %
07.11.2016 16:46 2,3 C 95 % 1009,7 hPa 0,0 l/m 3,6 km/h (1 Bft) SW 232 0 min 0,000 mm 0,0 UV-I 5 W/m 1,6 C 2,3 C 4,8 km/h (1 Bft) 100,00 %
07.11.2016 16:48 2,3 C 95 % 1009,8 hPa 0,0 l/m 2,6 km/h (1 Bft) SW 232 0 min 0,000 mm 0,0 UV-I 5 W/m 1,6 C 2,3 C 4,8 km/h (1 Bft) 97,37 %
07.11.2016 16:50 2,3 C 95 % 1009,8 hPa 0,0 l/m 2,4 km/h (1 Bft) SW 232 0 min 0,000 mm 0,0 UV-I 2 W/m 1,6 C 2,3 C 4,8 km/h (1 Bft) 100,00 %
07.11.2016 16:52 2,3 C 95 % 1009,8 hPa 0,0 l/m 2,8 km/h (1 Bft) SW 232 0 min 0,000 mm 0,0 UV-I 0 W/m 1,6 C 2,3 C 3,2 km/h (1 Bft) 100,00 %
07.11.2016 16:54 2,3 C 95 % 1009,8 hPa 0,0 l/m 1,7 km/h (1 Bft) SW 232 0 min 0,000 mm 0,0 UV-I 0 W/m 1,6 C 2,3 C 3,2 km/h (1 Bft) 97,56 %
07.11.2016 16:56 2,3 C 95 % 1009,9 hPa 0,0 l/m 4,1 km/h (1 Bft) S-SW 212 0 min 0,000 mm 0,0 UV-I 0 W/m 1,6 C 2,3 C 6,4 km/h (2 Bft) 98,11 %
07.11.2016 16:58 2,2 C 95 % 1009,9 hPa 0,0 l/m 3,7 km/h (1 Bft) S-SW 212 0 min 0,000 mm 0,0 UV-I 0 W/m 1,5 C 2,2 C 6,4 km/h (2 Bft) 94,74 %
07.11.2016 17:00 2,2 C 95 % 1009,9 hPa 0,0 l/m 4,2 km/h (1 Bft) S-SW 203 0 min 0,000 mm 0,0 UV-I 0 W/m 1,5 C 2,2 C 6,4 km/h (2 Bft) 95,74 %
07.11.2016 17:02 2,2 C 95 % 1009,9 hPa 0,0 l/m 3,0 km/h (1 Bft) S-SW 203 0 min 0,000 mm 0,0 UV-I 0 W/m 1,5 C 2,2 C 4,8 km/h (1 Bft) 96,23 %
07.11.2016 17:04 2,2 C 95 % 1009,9 hPa 0,0 l/m 1,6 km/h (1 Bft) S-SW 203 0 min 0,000 mm 0,0 UV-I 0 W/m 1,5 C 2,2 C 4,8 km/h (1 Bft) 98,00 %
07.11.2016 17:06 2,2 C 95 % 1010,0 hPa 0,0 l/m 2,9 km/h (1 Bft) S-SW 203 0 min 0,000 mm 0,0 UV-I 0 W/m 1,5 C 2,2 C 6,4 km/h (2 Bft) 94,74 %
07.11.2016 17:08 2,2 C 95 % 1010,0 hPa 0,0 l/m 5,5 km/h (1 Bft) S-SW 202 0 min 0,000 mm 0,0 UV-I 0 W/m 1,5 C 2,2 C 8,0 km/h (2 Bft) 96,23 %
07.11.2016 17:10 2,2 C 95 % 1010,0 hPa 0,0 l/m 5,3 km/h (1 Bft) SW 223 0 min 0,000 mm 0,0 UV-I 0 W/m 1,5 C 2,2 C 6,4 km/h (2 Bft) 97,37 %
07.11.2016 17:12 2,2 C 95 % 1010,0 hPa 0,0 l/m 2,4 km/h (1 Bft) SW 223 0 min 0,000 mm 0,0 UV-I 0 W/m 1,5 C 2,2 C 4,8 km/h (1 Bft) 98,00 %
07.11.2016 17:14 2,2 C 95 % 1010,0 hPa 0,0 l/m 2,9 km/h (1 Bft) SW 223 0 min 0,000 mm 0,0 UV-I 0 W/m 1,5 C 2,2 C 4,8 km/h (1 Bft) 98,00 %
07.11.2016 17:16 2,2 C 95 % 1009,9 hPa 0,0 l/m 2,5 km/h (1 Bft) SW 223 0 min 0,000 mm 0,0 UV-I 0 W/m 1,5 C 2,2 C 3,2 km/h (1 Bft) 96,23 %
07.11.2016 17:18 2,2 C 95 % 1010,0 hPa 0,0 l/m 1,8 km/h (1 Bft) SW 223 0 min 0,000 mm 0,0 UV-I 0 W/m 1,5 C 2,2 C 3,2 km/h (1 Bft) 97,14 %
07.11.2016 17:20 2,2 C 95 % 1010,0 hPa 0,0 l/m 2,4 km/h (1 Bft) SW 223 0 min 0,000 mm 0,0 UV-I 0 W/m 1,5 C 2,2 C 3,2 km/h (1 Bft) 96,23 %
07.11.2016 17:22 2,2 C 95 % 1010,0 hPa 0,0 l/m 2,5 km/h (1 Bft) SW 223 0 min 0,000 mm 0,0 UV-I 0 W/m 1,5 C 2,2 C 3,2 km/h (1 Bft) 98,00 %
07.11.2016 17:24 2,1 C 95 % 1010,1 hPa 0,0 l/m 2,7 km/h (1 Bft) SW 223 0 min 0,000 mm 0,0 UV-I 0 W/m 1,4 C 2,1 C 4,8 km/h (1 Bft) 94,44 %
07.11.2016 17:26 2,2 C 95 % 1010,1 hPa 0,0 l/m 2,4 km/h (1 Bft) SW 218 0 min 0,000 mm 0,0 UV-I 0 W/m 1,5 C 2,2 C 3,2 km/h (1 Bft) 98,00 %
07.11.2016 17:28 2,1 C 95 % 1010,1 hPa 0,0 l/m 2,5 km/h (1 Bft) SW 218 0 min 0,000 mm 0,0 UV-I 0 W/m 1,4 C 2,1 C 6,4 km/h (2 Bft) 95,74 %
07.11.2016 17:30 2,1 C 96 % 1010,2 hPa 0,0 l/m 2,8 km/h (1 Bft) SW 218 0 min 0,000 mm 0,0 UV-I 0 W/m 1,5 C 2,1 C 4,8 km/h (1 Bft) 98,00 %
07.11.2016 17:32 2,1 C 95 % 1010,3 hPa 0,0 l/m 4,2 km/h (1 Bft) SW 217 0 min 0,000 mm 0,0 UV-I 0 W/m 1,4 C 2,1 C 8,0 km/h (2 Bft) 98,00 %
07.11.2016 17:34 2,1 C 96 % 1010,3 hPa 0,0 l/m 5,1 km/h (1 Bft) SW 215 0 min 0,000 mm 0,0 UV-I 0 W/m 1,5 C 2,1 C 8,0 km/h (2 Bft) 100,00 %
07.11.2016 17:36 2,1 C 96 % 1010,3 hPa 0,0 l/m 3,7 km/h (1 Bft) SW 215 0 min 0,000 mm 0,0 UV-I 0 W/m 1,5 C 2,1 C 4,8 km/h (1 Bft) 100,00 %
07.11.2016 17:38 2,1 C 96 % 1010,2 hPa 0,0 l/m 4,8 km/h (1 Bft) SW 215 0 min 0,000 mm 0,0 UV-I 0 W/m 1,5 C 2,1 C 8,0 km/h (2 Bft) 100,00 %
07.11.2016 17:40 2,1 C 96 % 1010,2 hPa 0,0 l/m 4,0 km/h (1 Bft) SW 215 0 min 0,000 mm 0,0 UV-I 0 W/m 1,5 C 2,1 C 6,4 km/h (2 Bft) 98,00 %
07.11.2016 17:42 2,1 C 96 % 1010,3 hPa 0,0 l/m 2,7 km/h (1 Bft) SW 221 0 min 0,000 mm 0,0 UV-I 0 W/m 1,5 C 2,1 C 4,8 km/h (1 Bft) 98,11 %
07.11.2016 17:44 2,1 C 96 % 1010,2 hPa 0,0 l/m 2,7 km/h (1 Bft) SW 221 0 min 0,000 mm 0,0 UV-I 0 W/m 1,5 C 2,1 C 6,4 km/h (2 Bft) 100,00 %
07.11.2016 17:46 2,1 C 96 % 1010,3 hPa 0,0 l/m 2,2 km/h (1 Bft) S-SW 209 0 min 0,000 mm 0,0 UV-I 0 W/m 1,5 C 2,1 C 4,8 km/h (1 Bft) 96,00 %
07.11.2016 17:48 2,1 C 96 % 1010,3 hPa 0,0 l/m 3,7 km/h (1 Bft) S-SW 209 0 min 0,000 mm 0,0 UV-I 0 W/m 1,5 C 2,1 C 6,4 km/h (2 Bft) 100,00 %
07.11.2016 17:50 2,1 C 96 % 1010,4 hPa 0,0 l/m 2,8 km/h (1 Bft) S-SW 209 0 min 0,000 mm 0,0 UV-I 0 W/m 1,5 C 2,1 C 4,8 km/h (1 Bft) 100,00 %
07.11.2016 17:52 2,1 C 96 % 1010,3 hPa 0,0 l/m 3,7 km/h (1 Bft) S-SW 209 0 min 0,000 mm 0,0 UV-I 0 W/m 1,5 C 2,1 C 6,4 km/h (2 Bft) 100,00 %
07.11.2016 17:54 2,1 C 96 % 1010,3 hPa 0,0 l/m 4,1 km/h (1 Bft) SW 216 0 min 0,000 mm 0,0 UV-I 0 W/m 1,5 C 2,1 C 6,4 km/h (2 Bft) 100,00 %
07.11.2016 17:56 2,1 C 96 % 1010,3 hPa 0,0 l/m 5,0 km/h (1 Bft) S-SW 213 0 min 0,000 mm 0,0 UV-I 0 W/m 1,5 C 2,1 C 8,0 km/h (2 Bft) 100,00 %
07.11.2016 17:58 2,1 C 96 % 1010,3 hPa 0,0 l/m 4,1 km/h (1 Bft) SW 215 0 min 0,000 mm 0,0 UV-I 0 W/m 1,5 C 2,1 C 4,8 km/h (1 Bft) 100,00 %
07.11.2016 18:00 2,1 C 96 % 1010,4 hPa 0,0 l/m 4,2 km/h (1 Bft) SW 215 0 min 0,000 mm 0,0 UV-I 0 W/m 1,5 C 2,1 C 6,4 km/h (2 Bft) 97,87 %
07.11.2016 18:02 2,1 C 96 % 1010,4 hPa 0,0 l/m 4,5 km/h (1 Bft) SW 223 0 min 0,000 mm 0,0 UV-I 0 W/m 1,5 C 2,1 C 6,4 km/h (2 Bft) 98,11 %
07.11.2016 18:04 2,1 C 96 % 1010,4 hPa 0,0 l/m 5,2 km/h (1 Bft) S-SW 204 0 min 0,000 mm 0,0 UV-I 0 W/m 1,5 C 2,1 C 8,0 km/h (2 Bft) 98,00 %
07.11.2016 18:06 2,1 C 96 % 1010,4 hPa 0,0 l/m 4,2 km/h (1 Bft) SW 230 0 min 0,000 mm 0,0 UV-I 0 W/m 1,5 C 2,1 C 6,4 km/h (2 Bft) 100,00 %
07.11.2016 18:08 2,1 C 95 % 1010,4 hPa 0,0 l/m 4,6 km/h (1 Bft) SW 230 0 min 0,000 mm 0,0 UV-I 0 W/m 1,4 C 2,1 C 6,4 km/h (2 Bft) 100,00 %
07.11.2016 18:10 2,1 C 96 % 1010,3 hPa 0,0 l/m 4,0 km/h (1 Bft) SW 220 0 min 0,000 mm 0,0 UV-I 0 W/m 1,5 C 2,1 C 6,4 km/h (2 Bft) 100,00 %
07.11.2016 18:12 2,1 C 96 % 1010,3 hPa 0,0 l/m 5,0 km/h (1 Bft) SW 225 0 min 0,000 mm 0,0 UV-I 0 W/m 1,5 C 2,1 C 6,4 km/h (2 Bft) 100,00 %
07.11.2016 18:14 2,1 C 96 % 1010,4 hPa 0,0 l/m 5,1 km/h (1 Bft) SW 219 0 min 0,000 mm 0,0 UV-I 0 W/m 1,5 C 2,1 C 8,0 km/h (2 Bft) 97,87 %
07.11.2016 18:16 2,1 C 96 % 1010,4 hPa 0,0 l/m 4,9 km/h (1 Bft) S-SW 207 0 min 0,000 mm 0,0 UV-I 0 W/m 1,5 C 2,1 C 8,0 km/h (2 Bft) 94,29 %
07.11.2016 18:18 2,0 C 96 % 1010,3 hPa 0,0 l/m 4,1 km/h (1 Bft) SW 217 0 min 0,000 mm 0,0 UV-I 0 W/m 1,4 C 2,0 C 6,4 km/h (2 Bft) 100,00 %
07.11.2016 18:20 2,0 C 96 % 1010,3 hPa 0,0 l/m 3,7 km/h (1 Bft) SW 217 0 min 0,000 mm 0,0 UV-I 0 W/m 1,4 C 2,0 C 6,4 km/h (2 Bft) 100,00 %
07.11.2016 18:22 2,0 C 96 % 1010,3 hPa 0,0 l/m 3,9 km/h (1 Bft) SW 217 0 min 0,000 mm 0,0 UV-I 0 W/m 1,4 C 2,0 C 4,8 km/h (1 Bft) 100,00 %
07.11.2016 18:24 2,0 C 96 % 1010,3 hPa 0,0 l/m 4,5 km/h (1 Bft) SW 217 0 min 0,000 mm 0,0 UV-I 0 W/m 1,4 C 2,0 C 6,4 km/h (2 Bft) 100,00 %
07.11.2016 18:26 1,9 C 96 % 1010,3 hPa 0,0 l/m 4,4 km/h (1 Bft) SW 227 0 min 0,000 mm 0,0 UV-I 0 W/m 1,3 C 1,9 C 6,4 km/h (2 Bft) 97,87 %
07.11.2016 18:28 1,9 C 96 % 1010,3 hPa 0,0 l/m 3,9 km/h (1 Bft) SW 227 0 min 0,000 mm 0,0 UV-I 0 W/m 1,3 C 1,9 C 6,4 km/h (2 Bft) 100,00 %
07.11.2016 18:30 1,9 C 96 % 1010,3 hPa 0,0 l/m 4,8 km/h (1 Bft) S-SW 211 0 min 0,000 mm 0,0 UV-I 0 W/m 1,3 C 1,9 C 6,4 km/h (2 Bft) 100,00 %
07.11.2016 18:32 1,9 C 96 % 1010,3 hPa 0,0 l/m 4,7 km/h (1 Bft) S-SW 205 0 min 0,000 mm 0,0 UV-I 0 W/m 1,3 C 1,9 C 6,4 km/h (2 Bft) 100,00 %
07.11.2016 18:34 1,8 C 96 % 1010,3 hPa 0,0 l/m 5,6 km/h (1 Bft) SW 234 0 min 0,000 mm 0,0 UV-I 0 W/m 1,2 C 1,8 C 8,0 km/h (2 Bft) 100,00 %
07.11.2016 18:36 1,8 C 96 % 1010,3 hPa 0,0 l/m 5,2 km/h (1 Bft) SW 236 0 min 0,000 mm 0,0 UV-I 0 W/m 1,2 C 1,8 C 8,0 km/h (2 Bft) 95,45 %
07.11.2016 18:38 1,8 C 96 % 1010,3 hPa 0,0 l/m 5,4 km/h (1 Bft) SW 219 0 min 0,000 mm 0,0 UV-I 0 W/m 1,2 C 1,8 C 8,0 km/h (2 Bft) 97,56 %
07.11.2016 18:40 1,8 C 96 % 1010,2 hPa 0,0 l/m 5,2 km/h (1 Bft) SW 226 0 min 0,000 mm 0,0 UV-I 0 W/m 1,2 C 1,8 C 8,0 km/h (2 Bft) 100,00 %
07.11.2016 18:42 1,8 C 96 % 1010,3 hPa 0,0 l/m 4,6 km/h (1 Bft) SW 234 0 min 0,000 mm 0,0 UV-I 0 W/m 1,2 C 1,8 C 6,4 km/h (2 Bft) 98,00 %
07.11.2016 18:44 1,8 C 96 % 1010,3 hPa 0,0 l/m 4,6 km/h (1 Bft) W 263 0 min 0,000 mm 0,0 UV-I 0 W/m 1,2 C 1,8 C 6,4 km/h (2 Bft) 97,44 %
07.11.2016 18:46 1,8 C 96 % 1010,3 hPa 0,0 l/m 5,1 km/h (1 Bft) W-SW 255 0 min 0,000 mm 0,0 UV-I 0 W/m 1,2 C 1,8 C 6,4 km/h (2 Bft) 98,11 %
07.11.2016 18:48 1,7 C 96 % 1010,3 hPa 0,0 l/m 5,7 km/h (1 Bft) W 266 0 min 0,000 mm 0,0 UV-I 0 W/m 1,1 C 1,7 C 6,4 km/h (2 Bft) 100,00 %
07.11.2016 18:50 1,7 C 96 % 1010,3 hPa 0,0 l/m 6,9 km/h (2 Bft) W-SW 246 0 min 0,000 mm 0,0 UV-I 0 W/m 1,1 C 1,2 C 9,7 km/h (2 Bft) 96,00 %
07.11.2016 18:52 1,7 C 96 % 1010,3 hPa 0,0 l/m 6,1 km/h (2 Bft) W-SW 257 0 min 0,000 mm 0,0 UV-I 0 W/m 1,1 C 1,7 C 11,3 km/h (2 Bft) 100,00 %
07.11.2016 18:54 1,8 C 96 % 1010,3 hPa 0,0 l/m 6,2 km/h (2 Bft) W-SW 254 0 min 0,000 mm 0,0 UV-I 0 W/m 1,2 C 1,8 C 9,7 km/h (2 Bft) 96,23 %
07.11.2016 18:56 1,7 C 96 % 1010,2 hPa 0,0 l/m 5,5 km/h (1 Bft) W 260 0 min 0,000 mm 0,0 UV-I 0 W/m 1,1 C 1,7 C 8,0 km/h (2 Bft) 100,00 %
07.11.2016 18:58 1,8 C 96 % 1010,2 hPa 0,0 l/m 5,5 km/h (1 Bft) W-SW 252 0 min 0,000 mm 0,0 UV-I 0 W/m 1,2 C 1,8 C 8,0 km/h (2 Bft) 100,00 %
07.11.2016 19:00 1,8 C 95 % 1010,2 hPa 0,0 l/m 5,8 km/h (2 Bft) W-SW 248 0 min 0,000 mm 0,0 UV-I 0 W/m 1,1 C 1,8 C 8,0 km/h (2 Bft) 100,00 %
07.11.2016 19:02 1,8 C 95 % 1010,2 hPa 0,0 l/m 3,9 km/h (1 Bft) W-SW 251 0 min 0,000 mm 0,0 UV-I 0 W/m 1,1 C 1,8 C 6,4 km/h (2 Bft) 100,00 %
07.11.2016 19:04 1,7 C 95 % 1010,3 hPa 0,0 l/m 4,1 km/h (1 Bft) SW 217 0 min 0,000 mm 0,0 UV-I 0 W/m 1,0 C 1,7 C 6,4 km/h (2 Bft) 97,73 %
07.11.2016 19:06 1,7 C 95 % 1010,3 hPa 0,0 l/m 2,3 km/h (1 Bft) SW 217 0 min 0,000 mm 0,0 UV-I 0 W/m 1,0 C 1,7 C 4,8 km/h (1 Bft) 96,23 %
07.11.2016 19:08 1,7 C 95 % 1010,4 hPa 0,0 l/m 3,3 km/h (1 Bft) SW 217 0 min 0,000 mm 0,0 UV-I 0 W/m 1,0 C 1,7 C 4,8 km/h (1 Bft) 97,87 %
07.11.2016 19:10 1,6 C 95 % 1010,5 hPa 0,0 l/m 2,2 km/h (1 Bft) SW 217 0 min 0,000 mm 0,0 UV-I 0 W/m 0,9 C 1,6 C 4,8 km/h (1 Bft) 97,14 %
07.11.2016 19:12 1,6 C 95 % 1010,5 hPa 0,0 l/m 1,9 km/h (1 Bft) SW 216 0 min 0,000 mm 0,0 UV-I 0 W/m 0,9 C 1,6 C 4,8 km/h (1 Bft) 95,92 %
07.11.2016 19:14 1,6 C 95 % 1010,5 hPa 0,0 l/m 2,4 km/h (1 Bft) S-SW 201 0 min 0,000 mm 0,0 UV-I 0 W/m 0,9 C 1,6 C 4,8 km/h (1 Bft) 98,21 %
07.11.2016 19:16 1,6 C 95 % 1010,6 hPa 0,0 l/m 2,1 km/h (1 Bft) S-SW 201 0 min 0,000 mm 0,0 UV-I 0 W/m 0,9 C 1,6 C 4,8 km/h (1 Bft) 97,87 %
07.11.2016 19:18 1,6 C 95 % 1010,6 hPa 0,0 l/m 2,8 km/h (1 Bft) S-SW 192 0 min 0,000 mm 0,0 UV-I 0 W/m 0,9 C 1,6 C 4,8 km/h (1 Bft) 97,37 %
07.11.2016 19:20 1,6 C 95 % 1010,6 hPa 0,0 l/m 2,4 km/h (1 Bft) S 190 0 min 0,000 mm 0,0 UV-I 0 W/m 0,9 C 1,6 C 4,8 km/h (1 Bft) 94,34 %
07.11.2016 19:22 1,6 C 95 % 1010,6 hPa 0,0 l/m 1,3 km/h (1 Bft) S 190 0 min 0,000 mm 0,0 UV-I 0 W/m 0,9 C 1,6 C 3,2 km/h (1 Bft) 97,44 %
07.11.2016 19:24 1,6 C 95 % 1010,6 hPa 0,0 l/m 2,2 km/h (1 Bft) S 190 0 min 0,000 mm 0,0 UV-I 0 W/m 0,9 C 1,6 C 3,2 km/h (1 Bft) 96,00 %
07.11.2016 19:26 1,6 C 95 % 1010,6 hPa 0,0 l/m 2,0 km/h (1 Bft) S 190 0 min 0,000 mm 0,0 UV-I 0 W/m 0,9 C 1,6 C 3,2 km/h (1 Bft) 98,08 %
07.11.2016 19:28 1,5 C 95 % 1010,5 hPa 0,0 l/m 2,3 km/h (1 Bft) S 190 0 min 0,000 mm 0,0 UV-I 0 W/m 0,8 C 1,5 C 4,8 km/h (1 Bft) 97,62 %
07.11.2016 19:30 1,5 C 95 % 1010,5 hPa 0,0 l/m 2,2 km/h (1 Bft) S 190 0 min 0,000 mm 0,0 UV-I 0 W/m 0,8 C 1,5 C 4,8 km/h (1 Bft) 96,00 %
07.11.2016 19:32 1,5 C 95 % 1010,5 hPa 0,0 l/m 2,6 km/h (1 Bft) S 190 0 min 0,000 mm 0,0 UV-I 0 W/m 0,8 C 1,5 C 3,2 km/h (1 Bft) 97,87 %
07.11.2016 19:34 1,4 C 95 % 1010,5 hPa 0,0 l/m 2,9 km/h (1 Bft) S 190 0 min 0,000 mm 0,0 UV-I 0 W/m 0,7 C 1,4 C 4,8 km/h (1 Bft) 97,56 %
07.11.2016 19:36 1,4 C 95 % 1010,5 hPa 0,0 l/m 2,4 km/h (1 Bft) S 190 0 min 0,000 mm 0,0 UV-I 0 W/m 0,7 C 1,4 C 3,2 km/h (1 Bft) 98,00 %
07.11.2016 19:38 1,4 C 95 % 1010,5 hPa 0,0 l/m 2,5 km/h (1 Bft) S 190 0 min 0,000 mm 0,0 UV-I 0 W/m 0,7 C 1,4 C 3,2 km/h (1 Bft) 96,00 %
07.11.2016 19:40 1,4 C 95 % 1010,5 hPa 0,0 l/m 0,4 km/h (0 Bft) S 190 0 min 0,000 mm 0,0 UV-I 0 W/m 0,7 C 1,4 C 1,6 km/h (1 Bft) 95,74 %
07.11.2016 19:42 1,3 C 95 % 1010,4 hPa 0,0 l/m 0,1 km/h (0 Bft) S 190 0 min 0,000 mm 0,0 UV-I 0 W/m 0,6 C 1,3 C 1,6 km/h (1 Bft) 100,00 %
07.11.2016 19:44 1,3 C 95 % 1010,5 hPa 0,0 l/m 1,5 km/h (1 Bft) S 190 0 min 0,000 mm 0,0 UV-I 0 W/m 0,6 C 1,3 C 3,2 km/h (1 Bft) 97,37 %
07.11.2016 19:46 1,3 C 95 % 1010,5 hPa 0,0 l/m 2,0 km/h (1 Bft) S 190 0 min 0,000 mm 0,0 UV-I 0 W/m 0,6 C 1,3 C 4,8 km/h (1 Bft) 94,34 %
07.11.2016 19:48 1,2 C 95 % 1010,5 hPa 0,0 l/m 1,0 km/h (0 Bft) S 190 0 min 0,000 mm 0,0 UV-I 0 W/m 0,5 C 1,2 C 3,2 km/h (1 Bft) 98,08 %
07.11.2016 19:50 1,2 C 95 % 1010,5 hPa 0,0 l/m 1,5 km/h (1 Bft) S 190 0 min 0,000 mm 0,0 UV-I 0 W/m 0,5 C 1,2 C 3,2 km/h (1 Bft) 100,00 %
07.11.2016 19:52 1,2 C 96 % 1010,6 hPa 0,0 l/m 0,2 km/h (0 Bft) S 190 0 min 0,000 mm 0,0 UV-I 0 W/m 0,6 C 1,2 C 1,6 km/h (1 Bft) 97,87 %
07.11.2016 19:54 1,2 C 96 % 1010,6 hPa 0,0 l/m 0,6 km/h (0 Bft) S 190 0 min 0,000 mm 0,0 UV-I 0 W/m 0,6 C 1,2 C 3,2 km/h (1 Bft) 100,00 %
07.11.2016 19:56 1,2 C 96 % 1010,6 hPa 0,0 l/m 0,3 km/h (0 Bft) S 190 0 min 0,000 mm 0,0 UV-I 0 W/m 0,6 C 1,2 C 3,2 km/h (1 Bft) 100,00 %
07.11.2016 19:58 1,2 C 96 % 1010,7 hPa 0,0 l/m 1,0 km/h (0 Bft) S 190 0 min 0,000 mm 0,0 UV-I 0 W/m 0,6 C 1,2 C 3,2 km/h (1 Bft) 100,00 %
07.11.2016 20:00 1,2 C 95 % 1010,6 hPa 0,0 l/m 1,5 km/h (1 Bft) S 190 0 min 0,000 mm 0,0 UV-I 0 W/m 0,5 C 1,2 C 3,2 km/h (1 Bft) 97,67 %
07.11.2016 20:02 1,2 C 95 % 1010,7 hPa 0,0 l/m 0,5 km/h (0 Bft) S 190 0 min 0,000 mm 0,0 UV-I 0 W/m 0,5 C 1,2 C 3,2 km/h (1 Bft) 100,00 %
07.11.2016 20:04 1,1 C 95 % 1010,6 hPa 0,0 l/m 0,1 km/h (0 Bft) S 190 0 min 0,000 mm 0,0 UV-I 0 W/m 0,4 C 1,1 C 1,6 km/h (1 Bft) 97,44 %
07.11.2016 20:06 1,1 C 95 % 1010,6 hPa 0,0 l/m 0,2 km/h (0 Bft) S 190 0 min 0,000 mm 0,0 UV-I 0 W/m 0,4 C 1,1 C 1,6 km/h (1 Bft) 98,00 %
07.11.2016 20:09 1,0 C 95 % 1010,5 hPa 0,0 l/m 1,2 km/h (1 Bft) S 190 0 min 0,000 mm 0,0 UV-I 0 W/m 0,3 C 1,0 C 1,6 km/h (1 Bft) 100,00 %
07.11.2016 20:10 0,9 C 95 % 1010,5 hPa 0,0 l/m 1,0 km/h (0 Bft) S 190 0 min 0,000 mm 0,0 UV-I 0 W/m 0,2 C 0,9 C 1,6 km/h (1 Bft) 100,00 %
07.11.2016 20:12 0,8 C 95 % 1010,6 hPa 0,0 l/m 0,0 km/h (0 Bft) S 190 0 min 0,000 mm 0,0 UV-I 0 W/m 0,1 C 0,8 C 1,6 km/h (1 Bft) 97,87 %
07.11.2016 20:14 0,8 C 95 % 1010,6 hPa 0,0 l/m 0,1 km/h (0 Bft) S 190 0 min 0,000 mm 0,0 UV-I 0 W/m 0,1 C 0,8 C 1,6 km/h (1 Bft) 98,00 %
07.11.2016 20:16 0,8 C 95 % 1010,7 hPa 0,0 l/m 1,7 km/h (1 Bft) S 190 0 min 0,000 mm 0,0 UV-I 0 W/m 0,1 C 0,8 C 3,2 km/h (1 Bft) 100,00 %
07.11.2016 20:18 0,7 C 96 % 1010,7 hPa 0,0 l/m 4,1 km/h (1 Bft) S 190 0 min 0,000 mm 0,0 UV-I 0 W/m 0,1 C 0,7 C 4,8 km/h (1 Bft) 100,00 %
07.11.2016 20:20 0,6 C 96 % 1010,7 hPa 0,0 l/m 2,4 km/h (1 Bft) S 190 0 min 0,000 mm 0,0 UV-I 0 W/m 0,0 C 0,6 C 4,8 km/h (1 Bft) 97,87 %
07.11.2016 20:22 0,6 C 96 % 1010,7 hPa 0,0 l/m 0,5 km/h (0 Bft) S 190 0 min 0,000 mm 0,0 UV-I 0 W/m 0,0 C 0,6 C 1,6 km/h (1 Bft) 100,00 %
07.11.2016 20:24 0,6 C 96 % 1010,7 hPa 0,0 l/m 1,0 km/h (0 Bft) S 190 0 min 0,000 mm 0,0 UV-I 0 W/m 0,0 C 0,6 C 3,2 km/h (1 Bft) 100,00 %
07.11.2016 20:26 0,7 C 96 % 1010,6 hPa 0,0 l/m 2,0 km/h (1 Bft) S 190 0 min 0,000 mm 0,0 UV-I 0 W/m 0,1 C 0,7 C 4,8 km/h (1 Bft) 97,37 %
07.11.2016 20:28 0,7 C 96 % 1010,6 hPa 0,0 l/m 1,9 km/h (1 Bft) S 190 0 min 0,000 mm 0,0 UV-I 0 W/m 0,1 C 0,7 C 3,2 km/h (1 Bft) 100,00 %
07.11.2016 20:30 0,7 C 96 % 1010,6 hPa 0,0 l/m 1,8 km/h (1 Bft) S 190 0 min 0,000 mm 0,0 UV-I 0 W/m 0,1 C 0,7 C 3,2 km/h (1 Bft) 94,74 %
07.11.2016 20:32 0,7 C 96 % 1010,6 hPa 0,0 l/m 2,0 km/h (1 Bft) S 190 0 min 0,000 mm 0,0 UV-I 0 W/m 0,1 C 0,7 C 3,2 km/h (1 Bft) 100,00 %
07.11.2016 20:34 0,7 C 96 % 1010,6 hPa 0,0 l/m 2,4 km/h (1 Bft) S 190 0 min 0,000 mm 0,0 UV-I 0 W/m 0,1 C 0,7 C 3,2 km/h (1 Bft) 100,00 %
07.11.2016 20:36 0,7 C 96 % 1010,7 hPa 0,0 l/m 0,4 km/h (0 Bft) S 190 0 min 0,000 mm 0,0 UV-I 0 W/m 0,1 C 0,7 C 1,6 km/h (1 Bft) 100,00 %
07.11.2016 20:38 0,7 C 96 % 1010,7 hPa 0,0 l/m 0,0 km/h (0 Bft) S 190 0 min 0,000 mm 0,0 UV-I 0 W/m 0,1 C 0,7 C 1,6 km/h (1 Bft) 100,00 %
07.11.2016 20:40 0,6 C 96 % 1010,7 hPa 0,0 l/m 0,7 km/h (0 Bft) S 190 0 min 0,000 mm 0,0 UV-I 0 W/m 0,0 C 0,6 C 1,6 km/h (1 Bft) 100,00 %
07.11.2016 20:42 0,6 C 96 % 1010,8 hPa 0,0 l/m 1,4 km/h (1 Bft) S 190 0 min 0,000 mm 0,0 UV-I 0 W/m 0,0 C 0,6 C 3,2 km/h (1 Bft) 100,00 %
07.11.2016 20:44 0,5 C 96 % 1010,8 hPa 0,0 l/m 2,1 km/h (1 Bft) S 190 0 min 0,000 mm 0,0 UV-I 0 W/m -0,1 C 0,5 C 3,2 km/h (1 Bft) 97,22 %
07.11.2016 20:46 0,5 C 96 % 1010,7 hPa 0,0 l/m 2,3 km/h (1 Bft) S 190 0 min 0,000 mm 0,0 UV-I 0 W/m -0,1 C 0,5 C 3,2 km/h (1 Bft) 100,00 %
07.11.2016 20:48 0,4 C 96 % 1010,7 hPa 0,0 l/m 2,3 km/h (1 Bft) S 190 0 min 0,000 mm 0,0 UV-I 0 W/m -0,2 C 0,4 C 3,2 km/h (1 Bft) 97,44 %
07.11.2016 20:50 0,4 C 96 % 1010,7 hPa 0,0 l/m 0,3 km/h (0 Bft) S 190 0 min 0,000 mm 0,0 UV-I 0 W/m -0,2 C 0,4 C 3,2 km/h (1 Bft) 100,00 %
07.11.2016 20:52 0,4 C 97 % 1010,7 hPa 0,0 l/m 0,0 km/h (0 Bft) S 190 0 min 0,000 mm 0,0 UV-I 0 W/m -0,0 C 0,4 C 0,0 km/h (0 Bft) 100,00 %
07.11.2016 20:54 0,4 C 96 % 1010,7 hPa 0,0 l/m 1,1 km/h (1 Bft) S 190 0 min 0,000 mm 0,0 UV-I 0 W/m -0,2 C 0,4 C 3,2 km/h (1 Bft) 100,00 %
07.11.2016 20:56 0,3 C 97 % 1010,7 hPa 0,0 l/m 3,7 km/h (1 Bft) S 189 0 min 0,000 mm 0,0 UV-I 0 W/m -0,1 C 0,3 C 4,8 km/h (1 Bft) 100,00 %
07.11.2016 20:58 0,3 C 97 % 1010,7 hPa 0,0 l/m 6,1 km/h (2 Bft) SO 126 0 min 0,000 mm 0,0 UV-I 0 W/m -0,1 C 0,3 C 8,0 km/h (2 Bft) 97,87 %
07.11.2016 21:00 0,3 C 97 % 1010,8 hPa 0,0 l/m 6,9 km/h (2 Bft) SO 139 0 min 0,000 mm 0,0 UV-I 0 W/m -0,1 C -0,2 C 11,3 km/h (2 Bft) 97,87 %
07.11.2016 21:02 0,4 C 97 % 1010,8 hPa 0,0 l/m 5,4 km/h (1 Bft) SO 134 0 min 0,000 mm 0,0 UV-I 0 W/m -0,0 C 0,4 C 11,3 km/h (2 Bft) 92,68 %
07.11.2016 21:04 0,5 C 97 % 1010,8 hPa 0,0 l/m 3,6 km/h (1 Bft) S-SO 150 0 min 0,000 mm 0,0 UV-I 0 W/m 0,1 C 0,5 C 6,4 km/h (2 Bft) 100,00 %
07.11.2016 21:06 0,6 C 97 % 1010,9 hPa 0,0 l/m 2,8 km/h (1 Bft) S-SO 154 0 min 0,000 mm 0,0 UV-I 0 W/m 0,2 C 0,6 C 4,8 km/h (1 Bft) 100,00 %
07.11.2016 21:08 0,6 C 97 % 1010,9 hPa 0,0 l/m 1,9 km/h (1 Bft) S-SO 154 0 min 0,000 mm 0,0 UV-I 0 W/m 0,2 C 0,6 C 4,8 km/h (1 Bft) 98,11 %
07.11.2016 21:10 0,7 C 97 % 1010,9 hPa 0,0 l/m 0,1 km/h (0 Bft) S-SO 154 0 min 0,000 mm 0,0 UV-I 0 W/m 0,3 C 0,7 C 1,6 km/h (1 Bft) 97,96 %
07.11.2016 21:12 0,7 C 97 % 1010,9 hPa 0,0 l/m 0,0 km/h (0 Bft) S-SO 153 0 min 0,000 mm 0,0 UV-I 0 W/m 0,3 C 0,7 C 0,0 km/h (0 Bft) 97,87 %
07.11.2016 21:14 0,6 C 97 % 1010,9 hPa 0,0 l/m 0,1 km/h (0 Bft) S-SO 154 0 min 0,000 mm 0,0 UV-I 0 W/m 0,2 C 0,6 C 1,6 km/h (1 Bft) 97,56 %
07.11.2016 21:16 0,6 C 97 % 1010,9 hPa 0,0 l/m 0,3 km/h (0 Bft) S-SO 154 0 min 0,000 mm 0,0 UV-I 0 W/m 0,2 C 0,6 C 1,6 km/h (1 Bft) 98,00 %
07.11.2016 21:18 0,6 C 97 % 1010,8 hPa 0,0 l/m 0,0 km/h (0 Bft) S-SO 154 0 min 0,000 mm 0,0 UV-I 0 W/m 0,2 C 0,6 C 0,0 km/h (0 Bft) 97,87 %
07.11.2016 21:20 0,6 C 97 % 1010,8 hPa 0,0 l/m 0,0 km/h (0 Bft) S-SO 154 0 min 0,000 mm 0,0 UV-I 0 W/m 0,2 C 0,6 C 0,0 km/h (0 Bft) 95,12 %
07.11.2016 21:22 0,6 C 97 % 1010,8 hPa 0,0 l/m 0,0 km/h (0 Bft) S-SO 154 0 min 0,000 mm 0,0 UV-I 0 W/m 0,2 C 0,6 C 0,0 km/h (0 Bft) 94,34 %
07.11.2016 21:24 0,5 C 97 % 1010,8 hPa 0,0 l/m 0,0 km/h (0 Bft) S-SO 154 0 min 0,000 mm 0,0 UV-I 0 W/m 0,1 C 0,5 C 0,0 km/h (0 Bft) 97,87 %
07.11.2016 21:26 0,4 C 97 % 1010,8 hPa 0,0 l/m 0,0 km/h (0 Bft) S-SO 153 0 min 0,000 mm 0,0 UV-I 0 W/m -0,0 C 0,4 C 0,0 km/h (0 Bft) 97,92 %
07.11.2016 21:28 0,3 C 97 % 1010,8 hPa 0,0 l/m 0,0 km/h (0 Bft) S-SO 154 0 min 0,000 mm 0,0 UV-I 0 W/m -0,1 C 0,3 C 0,0 km/h (0 Bft) 97,56 %
07.11.2016 21:30 0,3 C 97 % 1010,8 hPa 0,0 l/m 0,0 km/h (0 Bft) S-SO 154 0 min 0,000 mm 0,0 UV-I 0 W/m -0,1 C 0,3 C 0,0 km/h (0 Bft) 98,00 %
07.11.2016 21:32 0,3 C 97 % 1010,9 hPa 0,0 l/m 0,0 km/h (0 Bft) S-SO 154 0 min 0,000 mm 0,0 UV-I 0 W/m -0,1 C 0,3 C 0,0 km/h (0 Bft) 95,74 %
07.11.2016 21:34 0,3 C 97 % 1010,8 hPa 0,0 l/m 0,0 km/h (0 Bft) S-SO 154 0 min 0,000 mm 0,0 UV-I 0 W/m -0,1 C 0,3 C 0,0 km/h (0 Bft) 98,00 %
07.11.2016 21:36 0,3 C 97 % 1010,8 hPa 0,0 l/m 0,5 km/h (0 Bft) S-SO 154 0 min 0,000 mm 0,0 UV-I 0 W/m -0,1 C 0,3 C 1,6 km/h (1 Bft) 98,00 %
07.11.2016 21:38 0,3 C 97 % 1010,8 hPa 0,0 l/m 0,1 km/h (0 Bft) S-SO 154 0 min 0,000 mm 0,0 UV-I 0 W/m -0,1 C 0,3 C 1,6 km/h (1 Bft) 97,14 %
07.11.2016 21:40 0,3 C 97 % 1010,9 hPa 0,0 l/m 0,0 km/h (0 Bft) S-SO 154 0 min 0,000 mm 0,0 UV-I 0 W/m -0,1 C 0,3 C 0,0 km/h (0 Bft) 95,92 %
07.11.2016 21:42 0,3 C 97 % 1010,8 hPa 0,0 l/m 0,0 km/h (0 Bft) S-SO 154 0 min 0,000 mm 0,0 UV-I 0 W/m -0,1 C 0,3 C 0,0 km/h (0 Bft) 97,87 %
07.11.2016 21:44 0,3 C 97 % 1010,9 hPa 0,0 l/m 0,0 km/h (0 Bft) S-SO 154 0 min 0,000 mm 0,0 UV-I 0 W/m -0,1 C 0,3 C 0,0 km/h (0 Bft) 97,87 %
07.11.2016 21:46 0,4 C 97 % 1010,9 hPa 0,0 l/m 0,0 km/h (0 Bft) S-SO 154 0 min 0,000 mm 0,0 UV-I 0 W/m -0,0 C 0,4 C 0,0 km/h (0 Bft) 97,87 %
07.11.2016 21:48 0,4 C 97 % 1010,9 hPa 0,0 l/m 0,0 km/h (0 Bft) S-SO 154 0 min 0,000 mm 0,0 UV-I 0 W/m -0,0 C 0,4 C 0,0 km/h (0 Bft) 100,00 %
07.11.2016 21:50 0,4 C 97 % 1010,9 hPa 0,0 l/m 0,0 km/h (0 Bft) S-SO 154 0 min 0,000 mm 0,0 UV-I 0 W/m -0,0 C 0,4 C 0,0 km/h (0 Bft) 100,00 %
07.11.2016 21:52 0,4 C 97 % 1010,8 hPa 0,0 l/m 0,0 km/h (0 Bft) S-SO 153 0 min 0,000 mm 0,0 UV-I 0 W/m -0,0 C 0,4 C 1,6 km/h (1 Bft) 100,00 %
07.11.2016 21:54 0,4 C 97 % 1010,8 hPa 0,0 l/m 0,7 km/h (0 Bft) S-SO 154 0 min 0,000 mm 0,0 UV-I 0 W/m -0,0 C 0,4 C 1,6 km/h (1 Bft) 97,14 %
07.11.2016 21:56 0,4 C 97 % 1010,9 hPa 0,0 l/m 0,1 km/h (0 Bft) S-SO 154 0 min 0,000 mm 0,0 UV-I 0 W/m -0,0 C 0,4 C 1,6 km/h (1 Bft) 98,11 %
07.11.2016 21:58 0,4 C 97 % 1010,8 hPa 0,0 l/m 0,0 km/h (0 Bft) S-SO 154 0 min 0,000 mm 0,0 UV-I 0 W/m -0,0 C 0,4 C 1,6 km/h (1 Bft) 100,00 %
07.11.2016 22:00 0,4 C 97 % 1010,8 hPa 0,0 l/m 0,8 km/h (0 Bft) S-SO 154 0 min 0,000 mm 0,0 UV-I 0 W/m -0,0 C 0,4 C 1,6 km/h (1 Bft) 100,00 %
07.11.2016 22:02 0,4 C 97 % 1010,8 hPa 0,0 l/m 2,1 km/h (1 Bft) S-SO 154 0 min 0,000 mm 0,0 UV-I 0 W/m -0,0 C 0,4 C 3,2 km/h (1 Bft) 98,11 %
07.11.2016 22:04 0,4 C 97 % 1010,8 hPa 0,0 l/m 1,5 km/h (1 Bft) S-SO 154 0 min 0,000 mm 0,0 UV-I 0 W/m -0,0 C 0,4 C 3,2 km/h (1 Bft) 100,00 %
07.11.2016 22:06 0,5 C 97 % 1010,8 hPa 0,0 l/m 1,4 km/h (1 Bft) S-SO 154 0 min 0,000 mm 0,0 UV-I 0 W/m 0,1 C 0,5 C 3,2 km/h (1 Bft) 100,00 %
07.11.2016 22:08 0,5 C 97 % 1010,7 hPa 0,0 l/m 0,7 km/h (0 Bft) S-SO 154 0 min 0,000 mm 0,0 UV-I 0 W/m 0,1 C 0,5 C 3,2 km/h (1 Bft) 100,00 %
07.11.2016 22:10 0,5 C 97 % 1010,7 hPa 0,0 l/m 0,0 km/h (0 Bft) S-SO 154 0 min 0,000 mm 0,0 UV-I 0 W/m 0,1 C 0,5 C 0,0 km/h (0 Bft) 96,00 %
07.11.2016 22:12 0,5 C 97 % 1010,6 hPa 0,0 l/m 0,0 km/h (0 Bft) S-SO 154 0 min 0,000 mm 0,0 UV-I 0 W/m 0,1 C 0,5 C 0,0 km/h (0 Bft) 98,11 %
07.11.2016 22:14 0,4 C 97 % 1010,6 hPa 0,0 l/m 0,0 km/h (0 Bft) S-SO 154 0 min 0,000 mm 0,0 UV-I 0 W/m -0,0 C 0,4 C 0,0 km/h (0 Bft) 100,00 %
07.11.2016 22:16 0,5 C 97 % 1010,6 hPa 0,0 l/m 0,0 km/h (0 Bft) S-SO 154 0 min 0,000 mm 0,0 UV-I 0 W/m 0,1 C 0,5 C 0,0 km/h (0 Bft) 100,00 %
07.11.2016 22:18 0,5 C 97 % 1010,6 hPa 0,0 l/m 0,0 km/h (0 Bft) S-SO 154 0 min 0,000 mm 0,0 UV-I 0 W/m 0,1 C 0,5 C 0,0 km/h (0 Bft) 100,00 %
07.11.2016 22:20 0,5 C 97 % 1010,5 hPa 0,0 l/m 0,0 km/h (0 Bft) S-SO 154 0 min 0,000 mm 0,0 UV-I 0 W/m 0,1 C 0,5 C 0,0 km/h (0 Bft) 100,00 %
07.11.2016 22:22 0,5 C 97 % 1010,5 hPa 0,0 l/m 0,2 km/h (0 Bft) S-SO 154 0 min 0,000 mm 0,0 UV-I 0 W/m 0,1 C 0,5 C 1,6 km/h (1 Bft) 100,00 %
07.11.2016 22:24 0,6 C 97 % 1010,5 hPa 0,0 l/m 0,9 km/h (0 Bft) S-SO 154 0 min 0,000 mm 0,0 UV-I 0 W/m 0,2 C 0,6 C 1,6 km/h (1 Bft) 100,00 %
07.11.2016 22:26 0,6 C 97 % 1010,6 hPa 0,0 l/m 1,7 km/h (1 Bft) S-SO 153 0 min 0,000 mm 0,0 UV-I 0 W/m 0,2 C 0,6 C 3,2 km/h (1 Bft) 97,56 %
07.11.2016 22:28 0,6 C 97 % 1010,6 hPa 0,0 l/m 2,3 km/h (1 Bft) S-SO 153 0 min 0,000 mm 0,0 UV-I 0 W/m 0,2 C 0,6 C 4,8 km/h (1 Bft) 98,11 %
07.11.2016 22:30 0,7 C 98 % 1010,6 hPa 0,0 l/m 2,4 km/h (1 Bft) S-SO 153 0 min 0,000 mm 0,0 UV-I 0 W/m 0,4 C 0,7 C 4,8 km/h (1 Bft) 100,00 %
07.11.2016 22:32 0,7 C 98 % 1010,7 hPa 0,0 l/m 3,0 km/h (1 Bft) S-SO 150 0 min 0,000 mm 0,0 UV-I 0 W/m 0,4 C 0,7 C 4,8 km/h (1 Bft) 98,11 %
07.11.2016 22:34 0,7 C 98 % 1010,6 hPa 0,0 l/m 2,3 km/h (1 Bft) SO 138 0 min 0,000 mm 0,0 UV-I 0 W/m 0,4 C 0,7 C 4,8 km/h (1 Bft) 100,00 %
07.11.2016 22:36 0,7 C 98 % 1010,6 hPa 0,0 l/m 1,1 km/h (1 Bft) SO 138 0 min 0,000 mm 0,0 UV-I 0 W/m 0,4 C 0,7 C 3,2 km/h (1 Bft) 100,00 %
07.11.2016 22:38 0,7 C 98 % 1010,6 hPa 0,0 l/m 0,1 km/h (0 Bft) SO 138 0 min 0,000 mm 0,0 UV-I 0 W/m 0,4 C 0,7 C 1,6 km/h (1 Bft) 98,00 %
07.11.2016 22:40 0,7 C 98 % 1010,6 hPa 0,0 l/m 0,2 km/h (0 Bft) SO 138 0 min 0,000 mm 0,0 UV-I 0 W/m 0,4 C 0,7 C 1,6 km/h (1 Bft) 97,44 %
07.11.2016 22:42 0,7 C 97 % 1010,5 hPa 0,0 l/m 0,0 km/h (0 Bft) SO 138 0 min 0,000 mm 0,0 UV-I 0 W/m 0,3 C 0,7 C 0,0 km/h (0 Bft) 100,00 %
07.11.2016 22:44 0,7 C 97 % 1010,6 hPa 0,0 l/m 0,0 km/h (0 Bft) SO 138 0 min 0,000 mm 0,0 UV-I 0 W/m 0,3 C 0,7 C 0,0 km/h (0 Bft) 100,00 %
07.11.2016 22:46 0,7 C 97 % 1010,6 hPa 0,0 l/m 1,4 km/h (1 Bft) SO 138 0 min 0,000 mm 0,0 UV-I 0 W/m 0,3 C 0,7 C 3,2 km/h (1 Bft) 97,87 %
07.11.2016 22:48 0,6 C 97 % 1010,6 hPa 0,0 l/m 2,6 km/h (1 Bft) SO 138 0 min 0,000 mm 0,0 UV-I 0 W/m 0,2 C 0,6 C 4,8 km/h (1 Bft) 100,00 %
07.11.2016 22:50 0,6 C 97 % 1010,6 hPa 0,0 l/m 4,5 km/h (1 Bft) SO 130 0 min 0,000 mm 0,0 UV-I 0 W/m 0,2 C 0,6 C 6,4 km/h (2 Bft) 100,00 %
07.11.2016 22:52 0,6 C 97 % 1010,6 hPa 0,0 l/m 1,2 km/h (1 Bft) SO 130 0 min 0,000 mm 0,0 UV-I 0 W/m 0,2 C 0,6 C 4,8 km/h (1 Bft) 97,87 %
07.11.2016 22:54 0,6 C 97 % 1010,6 hPa 0,0 l/m 0,0 km/h (0 Bft) SO 130 0 min 0,000 mm 0,0 UV-I 0 W/m 0,2 C 0,6 C 0,0 km/h (0 Bft) 100,00 %
07.11.2016 22:56 0,5 C 97 % 1010,6 hPa 0,0 l/m 0,8 km/h (0 Bft) SO 130 0 min 0,000 mm 0,0 UV-I 0 W/m 0,1 C 0,5 C 1,6 km/h (1 Bft) 100,00 %
07.11.2016 22:58 0,4 C 97 % 1010,5 hPa 0,0 l/m 0,4 km/h (0 Bft) SO 130 0 min 0,000 mm 0,0 UV-I 0 W/m -0,0 C 0,4 C 1,6 km/h (1 Bft) 98,11 %
07.11.2016 23:00 0,4 C 97 % 1010,5 hPa 0,0 l/m 0,9 km/h (0 Bft) SO 130 0 min 0,000 mm 0,0 UV-I 0 W/m -0,0 C 0,4 C 3,2 km/h (1 Bft) 100,00 %
07.11.2016 23:02 0,3 C 97 % 1010,5 hPa 0,0 l/m 0,2 km/h (0 Bft) SO 130 0 min 0,000 mm 0,0 UV-I 0 W/m -0,1 C 0,3 C 1,6 km/h (1 Bft) 100,00 %
07.11.2016 23:04 0,3 C 97 % 1010,5 hPa 0,0 l/m 0,8 km/h (0 Bft) SO 130 0 min 0,000 mm 0,0 UV-I 0 W/m -0,1 C 0,3 C 3,2 km/h (1 Bft) 100,00 %
07.11.2016 23:06 0,3 C 97 % 1010,5 hPa 0,0 l/m 1,9 km/h (1 Bft) SO 130 0 min 0,000 mm 0,0 UV-I 0 W/m -0,1 C 0,3 C 3,2 km/h (1 Bft) 97,87 %
07.11.2016 23:08 0,3 C 97 % 1010,5 hPa 0,0 l/m 1,7 km/h (1 Bft) SO 130 0 min 0,000 mm 0,0 UV-I 0 W/m -0,1 C 0,3 C 3,2 km/h (1 Bft) 100,00 %
07.11.2016 23:10 0,2 C 97 % 1010,5 hPa 0,0 l/m 1,7 km/h (1 Bft) SO 130 0 min 0,000 mm 0,0 UV-I 0 W/m -0,2 C 0,2 C 3,2 km/h (1 Bft) 94,00 %
07.11.2016 23:12 0,2 C 97 % 1010,5 hPa 0,0 l/m 1,8 km/h (1 Bft) SO 130 0 min 0,000 mm 0,0 UV-I 0 W/m -0,2 C 0,2 C 3,2 km/h (1 Bft) 93,62 %
07.11.2016 23:14 0,2 C 97 % 1010,5 hPa 0,0 l/m 0,8 km/h (0 Bft) SO 130 0 min 0,000 mm 0,0 UV-I 0 W/m -0,2 C 0,2 C 1,6 km/h (1 Bft) 97,56 %
07.11.2016 23:16 0,2 C 97 % 1010,5 hPa 0,0 l/m 0,0 km/h (0 Bft) SO 130 0 min 0,000 mm 0,0 UV-I 0 W/m -0,2 C 0,2 C 0,0 km/h (0 Bft) 98,00 %
07.11.2016 23:18 0,2 C 97 % 1010,5 hPa 0,0 l/m 0,0 km/h (0 Bft) SO 130 0 min 0,000 mm 0,0 UV-I 0 W/m -0,2 C 0,2 C 0,0 km/h (0 Bft) 98,00 %
07.11.2016 23:20 0,2 C 97 % 1010,5 hPa 0,0 l/m 0,0 km/h (0 Bft) SO 130 0 min 0,000 mm 0,0 UV-I 0 W/m -0,2 C 0,2 C 0,0 km/h (0 Bft) 98,00 %
07.11.2016 23:22 0,2 C 97 % 1010,5 hPa 0,0 l/m 0,0 km/h (0 Bft) SO 130 0 min 0,000 mm 0,0 UV-I 0 W/m -0,2 C 0,2 C 0,0 km/h (0 Bft) 96,00 %
07.11.2016 23:24 0,2 C 97 % 1010,5 hPa 0,0 l/m 0,0 km/h (0 Bft) SO 130 0 min 0,000 mm 0,0 UV-I 0 W/m -0,2 C 0,2 C 0,0 km/h (0 Bft) 95,74 %
07.11.2016 23:26 0,2 C 97 % 1010,5 hPa 0,0 l/m 1,2 km/h (1 Bft) SO 130 0 min 0,000 mm 0,0 UV-I 0 W/m -0,2 C 0,2 C 3,2 km/h (1 Bft) 97,44 %
07.11.2016 23:28 0,2 C 97 % 1010,5 hPa 0,0 l/m 2,3 km/h (1 Bft) SO 130 0 min 0,000 mm 0,0 UV-I 0 W/m -0,2 C 0,2 C 3,2 km/h (1 Bft) 97,56 %
07.11.2016 23:30 0,2 C 97 % 1010,5 hPa 0,0 l/m 2,2 km/h (1 Bft) SO 130 0 min 0,000 mm 0,0 UV-I 0 W/m -0,2 C 0,2 C 3,2 km/h (1 Bft) 98,21 %
07.11.2016 23:32 0,2 C 97 % 1010,5 hPa 0,0 l/m 2,2 km/h (1 Bft) SO 130 0 min 0,000 mm 0,0 UV-I 0 W/m -0,2 C 0,2 C 3,2 km/h (1 Bft) 97,56 %
07.11.2016 23:34 0,3 C 98 % 1010,4 hPa 0,0 l/m 2,1 km/h (1 Bft) SO 130 0 min 0,000 mm 0,0 UV-I 0 W/m 0,0 C 0,3 C 3,2 km/h (1 Bft) 98,11 %
07.11.2016 23:36 0,2 C 97 % 1010,4 hPa 0,0 l/m 2,1 km/h (1 Bft) SO 130 0 min 0,000 mm 0,0 UV-I 0 W/m -0,2 C 0,2 C 3,2 km/h (1 Bft) 96,00 %
07.11.2016 23:38 0,2 C 97 % 1010,4 hPa 0,0 l/m 2,6 km/h (1 Bft) SO 130 0 min 0,000 mm 0,0 UV-I 0 W/m -0,2 C 0,2 C 3,2 km/h (1 Bft) 97,37 %
07.11.2016 23:40 0,2 C 97 % 1010,5 hPa 0,0 l/m 3,1 km/h (1 Bft) SO 130 0 min 0,000 mm 0,0 UV-I 0 W/m -0,2 C 0,2 C 4,8 km/h (1 Bft) 95,74 %
07.11.2016 23:42 0,1 C 97 % 1010,4 hPa 0,0 l/m 3,8 km/h (1 Bft) SO 130 0 min 0,000 mm 0,0 UV-I 0 W/m -0,3 C 0,1 C 4,8 km/h (1 Bft) 96,00 %
07.11.2016 23:44 0,1 C 97 % 1010,4 hPa 0,0 l/m 3,6 km/h (1 Bft) SO 130 0 min 0,000 mm 0,0 UV-I 0 W/m -0,3 C 0,1 C 4,8 km/h (1 Bft) 100,00 %
07.11.2016 23:46 0,1 C 98 % 1010,4 hPa 0,0 l/m 3,3 km/h (1 Bft) SO 130 0 min 0,000 mm 0,0 UV-I 0 W/m -0,2 C 0,1 C 4,8 km/h (1 Bft) 100,00 %
07.11.2016 23:48 0,0 C 98 % 1010,4 hPa 0,0 l/m 2,5 km/h (1 Bft) SO 130 0 min 0,000 mm 0,0 UV-I 0 W/m -0,3 C 0,0 C 3,2 km/h (1 Bft) 98,00 %
07.11.2016 23:50 0,0 C 98 % 1010,4 hPa 0,0 l/m 1,3 km/h (1 Bft) SO 130 0 min 0,000 mm 0,0 UV-I 0 W/m -0,3 C 0,0 C 1,6 km/h (1 Bft) 100,00 %
07.11.2016 23:52 0,1 C 98 % 1010,4 hPa 0,0 l/m 1,7 km/h (1 Bft) SO 130 0 min 0,000 mm 0,0 UV-I 0 W/m -0,2 C 0,1 C 3,2 km/h (1 Bft) 100,00 %
07.11.2016 23:54 0,1 C 98 % 1010,4 hPa 0,0 l/m 3,3 km/h (1 Bft) SO 130 0 min 0,000 mm 0,0 UV-I 0 W/m -0,2 C 0,1 C 4,8 km/h (1 Bft) 98,11 %
07.11.2016 23:56 0,1 C 98 % 1010,4 hPa 0,0 l/m 3,9 km/h (1 Bft) SO 130 0 min 0,000 mm 0,0 UV-I 0 W/m -0,2 C 0,1 C 4,8 km/h (1 Bft) 100,00 %
07.11.2016 23:58 0,1 C 98 % 1010,4 hPa 0,0 l/m 2,7 km/h (1 Bft) SO 130 0 min 0,000 mm 0,0 UV-I 0 W/m -0,2 C 0,1 C 4,8 km/h (1 Bft) 100,00 %
_ Min-Zeit 23:48 14:16 00:00 - 20:12 - - - - - - 23:42 06:26 20:52 03:02
Minimum _ 0,0 C 87 % 1004,0 hPa - 0,0 km/h (0 Bft) - - - - - - -0,3 C -1,3 C 0,0 km/h (0 Bft) 92,11 %
_ Max-Zeit 11:50 00:00 21:06 00:08 14:34 - - 15:44 12:00 11:44 11:50 11:50 11:50 14:28 00:00
Maximum _ 4,7 C 98 % 1010,9 hPa 0,2 l/m 11,6 km/h
W-SW (2 Bft)
- - 2 min 0,076 mm 0,6 UV-I 225 W/m 3,5 C 4,7 C 20,9 km/h
W-NW (4 Bft)
100,00 %
Durchschnitt _ 2,4 C 95 % 1007,6 hPa #2,2 l/m 4,7 km/h (1 Bft) SW - #20 min. #0,356 mm 0,5 UV-I 89 W/m 1,7 C 2,2 C 7,8 km/h (2 Bft) 98,46 %